Wetterdaten: Montag, 20.06.2022
Datum Zeit Temp. Aussen Temp. o. S. Temp +5cm Feuchte Auss Luftdruck Regen Sonnenschein Regendauer Solar Windben Empfang
20.06.2022 00:00 15,0 C 14,4 C 11,1 C 89 % 1013,3 hPa 0,0 l/m 0 min 0 min 0 W/m 16,1 km/h (3 Bft) 97,87 %
20.06.2022 00:02 15,0 C 14,4 C 11,1 C 89 % 1013,3 hPa 0,0 l/m 0 min 0 min 0 W/m 9,7 km/h (2 Bft) 97,62 %
20.06.2022 00:04 15,0 C 14,4 C 11,1 C 89 % 1013,4 hPa 0,0 l/m 0 min 0 min 0 W/m 6,4 km/h (2 Bft) 97,87 %
20.06.2022 00:07 15,0 C 14,4 C 11,1 C 89 % 1013,5 hPa 0,0 l/m 0 min 0 min 0 W/m 16,1 km/h (3 Bft) 97,40 %
20.06.2022 00:08 15,0 C 14,4 C 11,1 C 89 % 1013,5 hPa 0,0 l/m 0 min 0 min 0 W/m 3,2 km/h (1 Bft) 100,00 %
20.06.2022 00:10 15,0 C 14,4 C 11,1 C 89 % 1013,5 hPa 0,0 l/m 0 min 0 min 0 W/m 6,4 km/h (2 Bft) 97,87 %
20.06.2022 00:12 15,0 C 14,4 C 11,1 C 89 % 1013,5 hPa 0,0 l/m 0 min 0 min 0 W/m 9,7 km/h (2 Bft) 95,74 %
20.06.2022 00:14 14,9 C 14,4 C 11,1 C 89 % 1013,5 hPa 0,0 l/m 0 min 0 min 0 W/m 12,9 km/h (3 Bft) 97,87 %
20.06.2022 00:16 14,9 C 14,4 C 11,1 C 89 % 1013,5 hPa 0,0 l/m 0 min 0 min 0 W/m 6,4 km/h (2 Bft) 97,87 %
20.06.2022 00:18 14,9 C 14,4 C 11,1 C 89 % 1013,5 hPa 0,0 l/m 0 min 0 min 0 W/m 9,7 km/h (2 Bft) 97,83 %
20.06.2022 00:20 14,9 C 14,4 C 11,1 C 89 % 1013,6 hPa 0,0 l/m 0 min 0 min 0 W/m 9,7 km/h (2 Bft) 95,74 %
20.06.2022 00:22 14,9 C 14,4 C 11,1 C 89 % 1013,6 hPa 0,0 l/m 0 min 0 min 0 W/m 9,7 km/h (2 Bft) 97,87 %
20.06.2022 00:24 14,9 C 14,4 C 11,1 C 89 % 1013,6 hPa 0,0 l/m 0 min 0 min 0 W/m 6,4 km/h (2 Bft) 97,87 %
20.06.2022 00:26 14,9 C 14,4 C 11,1 C 89 % 1013,6 hPa 0,0 l/m 0 min 0 min 0 W/m 19,3 km/h (3 Bft) 95,74 %
20.06.2022 00:28 14,9 C 14,4 C 11,1 C 89 % 1013,6 hPa 0,0 l/m 0 min 0 min 0 W/m 6,4 km/h (2 Bft) 97,87 %
20.06.2022 00:30 14,9 C 14,4 C 11,1 C 89 % 1013,5 hPa 0,0 l/m 0 min 0 min 0 W/m 9,7 km/h (2 Bft) 97,83 %
20.06.2022 00:32 14,9 C 14,4 C 11,1 C 89 % 1013,4 hPa 0,0 l/m 0 min 0 min 0 W/m 9,7 km/h (2 Bft) 97,87 %
20.06.2022 00:34 14,8 C 14,4 C 11,1 C 89 % 1013,4 hPa 0,0 l/m 0 min 0 min 0 W/m 16,1 km/h (3 Bft) 97,87 %
20.06.2022 00:36 14,8 C 14,4 C 11,1 C 88 % 1013,5 hPa 0,0 l/m 0 min 0 min 0 W/m 12,9 km/h (3 Bft) 100,00 %
20.06.2022 00:38 14,9 C 14,4 C 11,1 C 88 % 1013,4 hPa 0,0 l/m 0 min 0 min 0 W/m 6,4 km/h (2 Bft) 100,00 %
20.06.2022 00:40 14,8 C 14,4 C 11,1 C 88 % 1013,4 hPa 0,0 l/m 0 min 0 min 0 W/m 19,3 km/h (3 Bft) 100,00 %
20.06.2022 00:42 14,8 C 14,4 C 11,1 C 88 % 1013,3 hPa 0,0 l/m 0 min 0 min 0 W/m 9,7 km/h (2 Bft) 100,00 %
20.06.2022 00:44 14,8 C 14,4 C 11,1 C 88 % 1013,3 hPa 0,0 l/m 0 min 0 min 0 W/m 9,7 km/h (2 Bft) 100,00 %
20.06.2022 00:46 14,8 C 14,4 C 11,1 C 88 % 1013,4 hPa 0,0 l/m 0 min 0 min 0 W/m 12,9 km/h (3 Bft) 100,00 %
20.06.2022 00:48 14,8 C 14,4 C 11,1 C 88 % 1013,5 hPa 0,0 l/m 0 min 0 min 0 W/m 6,4 km/h (2 Bft) 100,00 %
20.06.2022 00:50 14,8 C 14,4 C 11,1 C 88 % 1013,6 hPa 0,0 l/m 0 min 0 min 0 W/m 12,9 km/h (3 Bft) 97,87 %
20.06.2022 00:52 14,8 C 13,9 C 11,1 C 88 % 1013,6 hPa 0,0 l/m 0 min 0 min 0 W/m 3,2 km/h (1 Bft) 100,00 %
20.06.2022 00:54 14,8 C 13,9 C 11,1 C 88 % 1013,7 hPa 0,0 l/m 0 min 0 min 0 W/m 9,7 km/h (2 Bft) 97,83 %
20.06.2022 00:56 14,8 C 14,4 C 11,1 C 88 % 1013,7 hPa 0,0 l/m 0 min 0 min 0 W/m 6,4 km/h (2 Bft) 97,87 %
20.06.2022 00:58 14,8 C 14,4 C 11,1 C 88 % 1013,8 hPa 0,0 l/m 0 min 0 min 0 W/m 6,4 km/h (2 Bft) 97,87 %
20.06.2022 01:00 14,8 C 14,4 C 11,1 C 88 % 1013,9 hPa 0,0 l/m 0 min 0 min 0 W/m 12,9 km/h (3 Bft) 97,87 %
20.06.2022 01:02 14,8 C 14,4 C 11,1 C 88 % 1013,8 hPa 0,0 l/m 0 min 0 min 0 W/m 6,4 km/h (2 Bft) 97,87 %
20.06.2022 01:04 14,8 C 14,4 C 11,1 C 88 % 1013,7 hPa 0,0 l/m 0 min 0 min 0 W/m 3,2 km/h (1 Bft) 97,87 %
20.06.2022 01:06 14,8 C 14,4 C 11,1 C 88 % 1013,7 hPa 0,0 l/m 0 min 0 min 0 W/m 12,9 km/h (3 Bft) 97,83 %
20.06.2022 01:08 14,8 C 14,4 C 11,1 C 88 % 1013,5 hPa 0,0 l/m 0 min 0 min 0 W/m 9,7 km/h (2 Bft) 96,61 %
20.06.2022 01:10 14,8 C 14,4 C 11,1 C 88 % 1013,5 hPa 0,0 l/m 0 min 0 min 0 W/m 6,4 km/h (2 Bft) 100,00 %
20.06.2022 01:12 14,8 C 14,4 C 11,1 C 88 % 1013,5 hPa 0,0 l/m 0 min 0 min 0 W/m 6,4 km/h (2 Bft) 93,62 %
20.06.2022 01:14 14,8 C 14,4 C 11,1 C 88 % 1013,5 hPa 0,0 l/m 0 min 0 min 0 W/m 12,9 km/h (3 Bft) 97,87 %
20.06.2022 01:16 14,8 C 14,4 C 11,1 C 87 % 1013,5 hPa 0,0 l/m 0 min 0 min 0 W/m 9,7 km/h (2 Bft) 97,83 %
20.06.2022 01:18 14,8 C 14,4 C 11,1 C 87 % 1013,5 hPa 0,0 l/m 0 min 0 min 0 W/m 9,7 km/h (2 Bft) 97,87 %
20.06.2022 01:20 14,8 C 14,4 C 11,1 C 87 % 1013,4 hPa 0,0 l/m 0 min 0 min 0 W/m 6,4 km/h (2 Bft) 97,87 %
20.06.2022 01:22 14,7 C 13,9 C 11,1 C 87 % 1013,3 hPa 0,0 l/m 0 min 0 min 0 W/m 12,9 km/h (3 Bft) 97,87 %
20.06.2022 01:24 14,7 C 13,9 C 11,1 C 87 % 1013,3 hPa 0,0 l/m 0 min 0 min 0 W/m 12,9 km/h (3 Bft) 97,87 %
20.06.2022 01:26 14,7 C 13,9 C 10,6 C 87 % 1013,1 hPa 0,0 l/m 0 min 0 min 0 W/m 9,7 km/h (2 Bft) 100,00 %
20.06.2022 01:28 14,7 C 13,9 C 11,1 C 87 % 1013,0 hPa 0,0 l/m 0 min 0 min 0 W/m 9,7 km/h (2 Bft) 100,00 %
20.06.2022 01:30 14,7 C 13,9 C 10,6 C 87 % 1013,0 hPa 0,0 l/m 0 min 0 min 0 W/m 9,7 km/h (2 Bft) 100,00 %
20.06.2022 01:32 14,6 C 13,9 C 11,1 C 87 % 1013,1 hPa 0,0 l/m 0 min 0 min 0 W/m 16,1 km/h (3 Bft) 100,00 %
20.06.2022 01:34 14,6 C 13,9 C 10,6 C 87 % 1013,2 hPa 0,0 l/m 0 min 0 min 0 W/m 12,9 km/h (3 Bft) 100,00 %
20.06.2022 01:36 14,6 C 13,9 C 10,6 C 87 % 1013,3 hPa 0,0 l/m 0 min 0 min 0 W/m 9,7 km/h (2 Bft) 98,28 %
20.06.2022 01:38 14,6 C 13,9 C 10,6 C 87 % 1013,3 hPa 0,0 l/m 0 min 0 min 0 W/m 16,1 km/h (3 Bft) 100,00 %
20.06.2022 01:40 14,6 C 13,9 C 10,6 C 87 % 1013,3 hPa 0,0 l/m 0 min 0 min 0 W/m 19,3 km/h (3 Bft) 100,00 %
20.06.2022 01:42 14,5 C 13,9 C 11,1 C 87 % 1013,3 hPa 0,0 l/m 0 min 0 min 0 W/m 16,1 km/h (3 Bft) 100,00 %
20.06.2022 01:44 14,5 C 13,9 C 11,1 C 87 % 1013,3 hPa 0,0 l/m 0 min 0 min 0 W/m 16,1 km/h (3 Bft) 98,00 %
20.06.2022 01:46 14,5 C 13,9 C 10,6 C 87 % 1013,2 hPa 0,0 l/m 0 min 0 min 0 W/m 9,7 km/h (2 Bft) 97,87 %
20.06.2022 01:48 14,5 C 13,9 C 10,6 C 87 % 1013,3 hPa 0,0 l/m 0 min 0 min 0 W/m 6,4 km/h (2 Bft) 97,87 %
20.06.2022 01:50 14,5 C 13,9 C 10,6 C 87 % 1013,4 hPa 0,0 l/m 0 min 0 min 0 W/m 6,4 km/h (2 Bft) 97,87 %
20.06.2022 01:52 14,5 C 13,9 C 10,6 C 87 % 1013,5 hPa 0,0 l/m 0 min 0 min 0 W/m 3,2 km/h (1 Bft) 95,65 %
20.06.2022 01:54 14,5 C 13,9 C 10,6 C 88 % 1013,4 hPa 0,0 l/m 0 min 0 min 0 W/m 3,2 km/h (1 Bft) 97,87 %
20.06.2022 01:56 14,5 C 13,9 C 10,6 C 88 % 1013,4 hPa 0,0 l/m 0 min 0 min 0 W/m 3,2 km/h (1 Bft) 97,87 %
20.06.2022 01:58 14,5 C 13,9 C 10,6 C 88 % 1013,5 hPa 0,0 l/m 0 min 0 min 0 W/m 6,4 km/h (2 Bft) 97,87 %
20.06.2022 02:00 14,5 C 13,9 C 10,6 C 88 % 1013,5 hPa 0,0 l/m 0 min 0 min 0 W/m 6,4 km/h (2 Bft) 97,87 %
20.06.2022 02:02 14,4 C 13,9 C 10,6 C 88 % 1013,4 hPa 0,0 l/m 0 min 0 min 0 W/m 3,2 km/h (1 Bft) 93,48 %
20.06.2022 02:04 14,4 C 13,9 C 10,6 C 88 % 1013,4 hPa 0,0 l/m 0 min 0 min 0 W/m 6,4 km/h (2 Bft) 97,87 %
20.06.2022 02:06 14,3 C 13,9 C 10,6 C 87 % 1013,4 hPa 0,0 l/m 0 min 0 min 0 W/m 6,4 km/h (2 Bft) 97,87 %
20.06.2022 02:08 14,3 C 13,9 C 10,6 C 87 % 1013,4 hPa 0,0 l/m 0 min 0 min 0 W/m 6,4 km/h (2 Bft) 95,74 %
20.06.2022 02:10 14,3 C 13,9 C 10,6 C 87 % 1013,4 hPa 0,0 l/m 0 min 0 min 0 W/m 6,4 km/h (2 Bft) 97,87 %
20.06.2022 02:12 14,3 C 13,9 C 10,6 C 87 % 1013,3 hPa 0,0 l/m 0 min 0 min 0 W/m 6,4 km/h (2 Bft) 93,62 %
20.06.2022 02:14 14,3 C 13,9 C 10,6 C 87 % 1013,3 hPa 0,0 l/m 0 min 0 min 0 W/m 3,2 km/h (1 Bft) 97,87 %
20.06.2022 02:16 14,3 C 13,9 C 10,6 C 87 % 1013,1 hPa 0,0 l/m 0 min 0 min 0 W/m 6,4 km/h (2 Bft) 97,87 %
20.06.2022 02:18 14,3 C 13,9 C 10,6 C 87 % 1013,1 hPa 0,0 l/m 0 min 0 min 0 W/m 9,7 km/h (2 Bft) 95,65 %
20.06.2022 02:20 14,3 C 13,9 C 10,6 C 87 % 1013,1 hPa 0,0 l/m 0 min 0 min 0 W/m 6,4 km/h (2 Bft) 95,74 %
20.06.2022 02:22 14,3 C 13,9 C 11,1 C 88 % 1013,1 hPa 0,0 l/m 0 min 0 min 0 W/m 6,4 km/h (2 Bft) 95,74 %
20.06.2022 02:24 14,3 C 13,9 C 10,6 C 88 % 1013,0 hPa 0,0 l/m 0 min 0 min 0 W/m 6,4 km/h (2 Bft) 91,49 %
20.06.2022 02:26 14,3 C 13,9 C 10,6 C 87 % 1012,8 hPa 0,0 l/m 0 min 0 min 0 W/m 6,4 km/h (2 Bft) 91,30 %
20.06.2022 02:28 14,3 C 13,9 C 11,1 C 87 % 1012,8 hPa 0,0 l/m 0 min 0 min 0 W/m 6,4 km/h (2 Bft) 95,74 %
20.06.2022 02:30 14,3 C 13,9 C 10,6 C 87 % 1012,7 hPa 0,0 l/m 0 min 0 min 0 W/m 6,4 km/h (2 Bft) 95,74 %
20.06.2022 02:32 14,3 C 13,9 C 10,6 C 87 % 1012,7 hPa 0,0 l/m 0 min 0 min 0 W/m 9,7 km/h (2 Bft) 93,62 %
20.06.2022 02:34 14,3 C 13,9 C 10,6 C 88 % 1012,8 hPa 0,0 l/m 0 min 0 min 0 W/m 6,4 km/h (2 Bft) 93,62 %
20.06.2022 02:36 14,3 C 13,9 C 10,6 C 88 % 1012,8 hPa 0,0 l/m 0 min 0 min 0 W/m 6,4 km/h (2 Bft) 93,62 %
20.06.2022 02:38 14,3 C 13,9 C 10,6 C 88 % 1012,8 hPa 0,0 l/m 0 min 0 min 0 W/m 3,2 km/h (1 Bft) 93,48 %
20.06.2022 02:40 14,3 C 13,9 C 10,6 C 88 % 1012,8 hPa 0,0 l/m 0 min 0 min 0 W/m 3,2 km/h (1 Bft) 95,74 %
20.06.2022 02:42 14,3 C 13,9 C 10,6 C 88 % 1013,0 hPa 0,0 l/m 0 min 0 min 0 W/m 3,2 km/h (1 Bft) 95,74 %
20.06.2022 02:44 14,3 C 13,9 C 10,6 C 88 % 1013,0 hPa 0,0 l/m 0 min 0 min 0 W/m 0,0 km/h (0 Bft) 93,62 %
20.06.2022 02:46 14,3 C 13,9 C 10,6 C 88 % 1013,0 hPa 0,0 l/m 0 min 0 min 0 W/m 3,2 km/h (1 Bft) 95,74 %
20.06.2022 02:48 14,3 C 13,9 C 10,6 C 88 % 1013,0 hPa 0,0 l/m 0 min 0 min 0 W/m 6,4 km/h (2 Bft) 95,74 %
20.06.2022 02:50 14,3 C 13,9 C 10,6 C 88 % 1013,0 hPa 0,0 l/m 0 min 0 min 0 W/m 3,2 km/h (1 Bft) 95,65 %
20.06.2022 02:52 14,3 C 13,9 C 10,6 C 88 % 1013,0 hPa 0,0 l/m 0 min 0 min 0 W/m 3,2 km/h (1 Bft) 93,62 %
20.06.2022 02:54 14,3 C 13,9 C 10,6 C 88 % 1012,8 hPa 0,0 l/m 0 min 0 min 0 W/m 6,4 km/h (2 Bft) 93,62 %
20.06.2022 02:56 14,3 C 13,9 C 10,6 C 88 % 1012,7 hPa 0,0 l/m 0 min 0 min 0 W/m 9,7 km/h (2 Bft) 93,62 %
20.06.2022 02:58 14,3 C 13,9 C 10,6 C 88 % 1013,0 hPa 0,0 l/m 0 min 0 min 0 W/m 3,2 km/h (1 Bft) 97,87 %
20.06.2022 03:00 14,3 C 13,9 C 10,6 C 88 % 1013,5 hPa 0,0 l/m 0 min 0 min 0 W/m 3,2 km/h (1 Bft) 95,74 %
20.06.2022 03:02 14,3 C 13,9 C 10,6 C 88 % 1013,9 hPa 0,0 l/m 0 min 0 min 0 W/m 6,4 km/h (2 Bft) 97,83 %
20.06.2022 03:04 14,3 C 13,9 C 11,1 C 88 % 1014,3 hPa 0,0 l/m 0 min 0 min 0 W/m 3,2 km/h (1 Bft) 97,87 %
20.06.2022 03:06 14,3 C 13,9 C 11,1 C 88 % 1014,7 hPa 0,0 l/m 0 min 0 min 0 W/m 3,2 km/h (1 Bft) 100,00 %
20.06.2022 03:08 14,4 C 13,9 C 11,1 C 88 % 1014,7 hPa 0,0 l/m 0 min 0 min 0 W/m 3,2 km/h (1 Bft) 100,00 %
20.06.2022 03:10 14,5 C 13,9 C 11,1 C 88 % 1014,9 hPa 0,0 l/m 0 min 2 min 0 W/m 3,2 km/h (1 Bft) 100,00 %
20.06.2022 03:12 14,6 C 13,9 C 11,1 C 88 % 1015,0 hPa 0,0 l/m 0 min 2 min 0 W/m 3,2 km/h (1 Bft) 100,00 %
20.06.2022 03:14 14,6 C 13,9 C 10,6 C 89 % 1015,1 hPa 0,0 l/m 0 min 2 min 0 W/m 3,2 km/h (1 Bft) 100,00 %
20.06.2022 03:16 14,7 C 13,3 C 10,6 C 89 % 1015,3 hPa 0,0 l/m 0 min 2 min 0 W/m 3,2 km/h (1 Bft) 100,00 %
20.06.2022 03:18 14,7 C 12,8 C 10,0 C 89 % 1015,4 hPa 0,2 l/m 0 min 2 min 0 W/m 6,4 km/h (2 Bft) 100,00 %
20.06.2022 03:20 14,6 C 12,8 C 9,4 C 89 % 1015,5 hPa 0,2 l/m 0 min 2 min 0 W/m 6,4 km/h (2 Bft) 100,00 %
20.06.2022 03:22 14,6 C 12,8 C 9,4 C 90 % 1015,5 hPa 0,0 l/m 0 min 2 min 0 W/m 6,4 km/h (2 Bft) 100,00 %
20.06.2022 03:24 14,5 C 12,8 C 9,4 C 90 % 1015,6 hPa 0,0 l/m 0 min 2 min 0 W/m 6,4 km/h (2 Bft) 100,00 %
20.06.2022 03:26 14,4 C 12,8 C 9,4 C 90 % 1015,8 hPa 0,2 l/m 0 min 2 min 0 W/m 6,4 km/h (2 Bft) 97,83 %
20.06.2022 03:28 14,4 C 12,8 C 9,4 C 91 % 1015,8 hPa 0,0 l/m 0 min 2 min 0 W/m 6,4 km/h (2 Bft) 100,00 %
20.06.2022 03:30 14,4 C 12,8 C 9,4 C 91 % 1015,8 hPa 0,0 l/m 0 min 2 min 0 W/m 6,4 km/h (2 Bft) 100,00 %
20.06.2022 03:32 14,4 C 12,8 C 9,4 C 91 % 1015,7 hPa 0,2 l/m 0 min 2 min 0 W/m 9,7 km/h (2 Bft) 100,00 %
20.06.2022 03:34 14,3 C 12,8 C 9,4 C 91 % 1015,4 hPa 0,0 l/m 0 min 2 min 0 W/m 3,2 km/h (1 Bft) 97,87 %
20.06.2022 03:36 14,3 C 12,8 C 9,4 C 91 % 1015,2 hPa 0,0 l/m 0 min 2 min 0 W/m 3,2 km/h (1 Bft) 100,00 %
20.06.2022 03:38 14,3 C 12,8 C 9,4 C 91 % 1015,2 hPa 0,0 l/m 0 min 2 min 0 W/m 3,2 km/h (1 Bft) 97,83 %
20.06.2022 03:40 14,3 C 12,8 C 10,0 C 91 % 1015,2 hPa 0,0 l/m 0 min 2 min 0 W/m 0,0 km/h (0 Bft) 100,00 %
20.06.2022 03:42 14,3 C 12,8 C 10,0 C 92 % 1015,1 hPa 0,0 l/m 0 min 2 min 0 W/m 0,0 km/h (0 Bft) 100,00 %
20.06.2022 03:44 14,3 C 12,8 C 9,4 C 92 % 1014,9 hPa 0,2 l/m 0 min 2 min 0 W/m 3,2 km/h (1 Bft) 100,00 %
20.06.2022 03:46 14,3 C 12,8 C 10,0 C 92 % 1014,8 hPa 0,0 l/m 0 min 2 min 0 W/m 3,2 km/h (1 Bft) 100,00 %
20.06.2022 03:48 14,3 C 12,8 C 10,0 C 92 % 1014,7 hPa 0,2 l/m 0 min 2 min 0 W/m 3,2 km/h (1 Bft) 100,00 %
20.06.2022 03:50 14,3 C 12,8 C 9,4 C 92 % 1014,7 hPa 0,0 l/m 0 min 2 min 0 W/m 3,2 km/h (1 Bft) 100,00 %
20.06.2022 03:52 14,3 C 12,8 C 9,4 C 92 % 1014,6 hPa 0,2 l/m 0 min 2 min 0 W/m 0,0 km/h (0 Bft) 100,00 %
20.06.2022 03:54 14,3 C 12,8 C 9,4 C 92 % 1014,4 hPa 0,2 l/m 0 min 2 min 0 W/m 0,0 km/h (0 Bft) 100,00 %
20.06.2022 03:56 14,3 C 12,8 C 9,4 C 93 % 1014,3 hPa 0,0 l/m 0 min 2 min 0 W/m 3,2 km/h (1 Bft) 100,00 %
20.06.2022 03:58 14,3 C 12,8 C 9,4 C 93 % 1014,2 hPa 0,0 l/m 0 min 2 min 0 W/m 3,2 km/h (1 Bft) 100,00 %
20.06.2022 04:00 14,3 C 12,8 C 9,4 C 93 % 1014,2 hPa 0,0 l/m 0 min 2 min 0 W/m 3,2 km/h (1 Bft) 97,87 %
20.06.2022 04:02 14,2 C 12,8 C 9,4 C 93 % 1014,1 hPa 0,0 l/m 0 min 2 min 0 W/m 3,2 km/h (1 Bft) 95,83 %
20.06.2022 04:07 14,1 C 12,8 C 9,4 C 93 % 1013,8 hPa 0,0 l/m 0 min 5 min 0 W/m 3,2 km/h (1 Bft) 100,00 %
20.06.2022 04:08 14,1 C 12,8 C 9,4 C 93 % 1013,8 hPa 0,2 l/m 0 min 1 min 0 W/m 3,2 km/h (1 Bft) 100,00 %
20.06.2022 04:10 14,1 C 12,2 C 9,4 C 93 % 1013,6 hPa 0,0 l/m 0 min 2 min 0 W/m 6,4 km/h (2 Bft) 100,00 %
20.06.2022 04:12 14,0 C 12,2 C 9,4 C 93 % 1013,4 hPa 0,0 l/m 0 min 2 min 0 W/m 6,4 km/h (2 Bft) 100,00 %
20.06.2022 04:14 13,9 C 12,2 C 9,4 C 93 % 1013,3 hPa 0,0 l/m 0 min 2 min 0 W/m 3,2 km/h (1 Bft) 100,00 %
20.06.2022 04:16 13,9 C 12,2 C 9,4 C 93 % 1013,3 hPa 0,0 l/m 0 min 2 min 0 W/m 3,2 km/h (1 Bft) 95,74 %
20.06.2022 04:18 13,8 C 12,2 C 8,9 C 93 % 1013,2 hPa 0,0 l/m 0 min 2 min 0 W/m 6,4 km/h (2 Bft) 97,87 %
20.06.2022 04:20 13,7 C 12,2 C 8,9 C 93 % 1013,0 hPa 0,2 l/m 0 min 2 min 0 W/m 3,2 km/h (1 Bft) 100,00 %
20.06.2022 04:22 13,7 C 12,2 C 8,9 C 94 % 1012,8 hPa 0,0 l/m 0 min 2 min 0 W/m 6,4 km/h (2 Bft) 95,74 %
20.06.2022 04:24 13,6 C 12,2 C 9,4 C 93 % 1012,6 hPa 0,0 l/m 0 min 2 min 0 W/m 6,4 km/h (2 Bft) 97,87 %
20.06.2022 04:26 13,6 C 12,2 C 8,9 C 94 % 1012,4 hPa 0,0 l/m 0 min 2 min 0 W/m 6,4 km/h (2 Bft) 97,83 %
20.06.2022 04:28 13,4 C 12,2 C 8,9 C 94 % 1012,4 hPa 0,0 l/m 0 min 0 min 0 W/m 6,4 km/h (2 Bft) 97,87 %
20.06.2022 04:30 13,4 C 12,2 C 8,9 C 94 % 1012,3 hPa 0,0 l/m 0 min 0 min 0 W/m 6,4 km/h (2 Bft) 95,74 %
20.06.2022 04:32 13,3 C 12,2 C 8,9 C 94 % 1012,1 hPa 0,0 l/m 0 min 0 min 0 W/m 12,9 km/h (3 Bft) 97,87 %
20.06.2022 04:34 13,2 C 12,2 C 8,9 C 94 % 1012,0 hPa 0,0 l/m 0 min 0 min 0 W/m 3,2 km/h (1 Bft) 97,87 %
20.06.2022 04:36 13,2 C 12,2 C 8,9 C 94 % 1011,8 hPa 0,0 l/m 0 min 0 min 0 W/m 22,5 km/h (4 Bft) 97,87 %
20.06.2022 04:38 13,1 C 12,2 C 8,9 C 94 % 1011,8 hPa 0,0 l/m 0 min 0 min 0 W/m 6,4 km/h (2 Bft) 97,83 %
20.06.2022 04:40 13,1 C 12,2 C 8,3 C 94 % 1011,9 hPa 0,0 l/m 0 min 0 min 0 W/m 12,9 km/h (3 Bft) 95,74 %
20.06.2022 04:42 13,1 C 12,2 C 8,9 C 94 % 1011,9 hPa 0,0 l/m 0 min 0 min 0 W/m 9,7 km/h (2 Bft) 97,87 %
20.06.2022 04:44 13,0 C 12,2 C 8,3 C 95 % 1011,8 hPa 0,0 l/m 0 min 0 min 0 W/m 12,9 km/h (3 Bft) 97,87 %
20.06.2022 04:46 13,0 C 12,2 C 8,3 C 94 % 1011,8 hPa 0,0 l/m 0 min 0 min 0 W/m 9,7 km/h (2 Bft) 95,74 %
20.06.2022 04:48 12,9 C 12,2 C 8,3 C 95 % 1011,8 hPa 0,0 l/m 0 min 0 min 0 W/m 19,3 km/h (3 Bft) 93,62 %
20.06.2022 04:50 12,9 C 12,2 C 8,3 C 95 % 1011,8 hPa 0,0 l/m 0 min 0 min 0 W/m 9,7 km/h (2 Bft) 97,83 %
20.06.2022 04:52 12,9 C 12,2 C 8,3 C 95 % 1011,8 hPa 0,0 l/m 0 min 0 min 0 W/m 12,9 km/h (3 Bft) 97,87 %
20.06.2022 04:54 12,9 C 12,2 C 8,3 C 95 % 1011,9 hPa 0,0 l/m 0 min 0 min 0 W/m 16,1 km/h (3 Bft) 95,74 %
20.06.2022 04:56 12,9 C 12,2 C 8,3 C 95 % 1011,9 hPa 0,0 l/m 0 min 0 min 0 W/m 12,9 km/h (3 Bft) 97,87 %
20.06.2022 04:58 12,9 C 12,2 C 8,3 C 95 % 1012,0 hPa 0,0 l/m 0 min 0 min 0 W/m 16,1 km/h (3 Bft) 97,87 %
20.06.2022 05:00 12,8 C 12,2 C 8,3 C 95 % 1012,0 hPa 0,0 l/m 0 min 0 min 0 W/m 9,7 km/h (2 Bft) 97,87 %
20.06.2022 05:02 12,8 C 12,2 C 8,3 C 95 % 1011,9 hPa 0,0 l/m 0 min 0 min 0 W/m 9,7 km/h (2 Bft) 93,48 %
20.06.2022 05:04 12,8 C 12,2 C 8,3 C 95 % 1012,1 hPa 0,0 l/m 0 min 0 min 0 W/m 12,9 km/h (3 Bft) 95,74 %
20.06.2022 05:06 12,8 C 12,2 C 8,3 C 95 % 1012,1 hPa 0,0 l/m 0 min 0 min 0 W/m 12,9 km/h (3 Bft) 95,74 %
20.06.2022 05:08 12,8 C 12,2 C 8,3 C 95 % 1012,0 hPa 0,0 l/m 0 min 0 min 0 W/m 22,5 km/h (4 Bft) 95,74 %
20.06.2022 05:10 12,8 C 12,2 C 8,3 C 95 % 1011,9 hPa 0,0 l/m 0 min 0 min 0 W/m 16,1 km/h (3 Bft) 93,62 %
20.06.2022 05:12 12,8 C 12,2 C 8,3 C 95 % 1012,0 hPa 0,0 l/m 0 min 0 min 0 W/m 12,9 km/h (3 Bft) 95,74 %
20.06.2022 05:14 12,8 C 12,2 C 8,3 C 95 % 1011,9 hPa 0,0 l/m 0 min 0 min 0 W/m 9,7 km/h (2 Bft) 93,48 %
20.06.2022 05:16 12,9 C 12,2 C 8,3 C 95 % 1012,0 hPa 0,0 l/m 0 min 0 min 0 W/m 19,3 km/h (3 Bft) 95,92 %
20.06.2022 05:18 12,9 C 12,2 C 8,3 C 95 % 1011,9 hPa 0,0 l/m 0 min 0 min 0 W/m 16,1 km/h (3 Bft) 93,62 %
20.06.2022 05:20 12,9 C 12,2 C 8,3 C 95 % 1011,9 hPa 0,0 l/m 0 min 0 min 0 W/m 22,5 km/h (4 Bft) 95,74 %
20.06.2022 05:22 12,9 C 12,2 C 8,3 C 95 % 1011,8 hPa 0,0 l/m 0 min 0 min 0 W/m 16,1 km/h (3 Bft) 95,74 %
20.06.2022 05:24 12,9 C 12,2 C 8,3 C 95 % 1011,8 hPa 0,0 l/m 0 min 0 min 0 W/m 9,7 km/h (2 Bft) 95,65 %
20.06.2022 05:26 12,9 C 12,2 C 8,3 C 95 % 1011,9 hPa 0,0 l/m 0 min 0 min 0 W/m 16,1 km/h (3 Bft) 93,62 %
20.06.2022 05:28 12,9 C 12,2 C 8,3 C 95 % 1011,8 hPa 0,0 l/m 0 min 0 min 0 W/m 16,1 km/h (3 Bft) 93,62 %
20.06.2022 05:30 12,8 C 12,2 C 8,3 C 94 % 1011,8 hPa 0,0 l/m 0 min 0 min 0 W/m 12,9 km/h (3 Bft) 95,74 %
20.06.2022 05:32 12,9 C 12,2 C 8,3 C 94 % 1011,8 hPa 0,0 l/m 0 min 0 min 0 W/m 12,9 km/h (3 Bft) 97,87 %
20.06.2022 05:34 12,9 C 12,2 C 8,3 C 94 % 1011,8 hPa 0,0 l/m 0 min 0 min 0 W/m 9,7 km/h (2 Bft) 97,87 %
20.06.2022 05:36 12,9 C 12,2 C 8,3 C 94 % 1011,8 hPa 0,0 l/m 0 min 0 min 0 W/m 12,9 km/h (3 Bft) 95,65 %
20.06.2022 05:38 12,9 C 12,2 C 8,3 C 94 % 1011,7 hPa 0,0 l/m 0 min 0 min 0 W/m 9,7 km/h (2 Bft) 97,87 %
20.06.2022 05:40 12,9 C 12,2 C 8,3 C 94 % 1011,7 hPa 0,0 l/m 0 min 0 min 0 W/m 9,7 km/h (2 Bft) 97,87 %
20.06.2022 05:42 12,9 C 12,2 C 8,3 C 94 % 1011,8 hPa 0,0 l/m 0 min 0 min 0 W/m 9,7 km/h (2 Bft) 97,87 %
20.06.2022 05:44 12,8 C 12,2 C 8,3 C 94 % 1011,8 hPa 0,0 l/m 0 min 0 min 0 W/m 9,7 km/h (2 Bft) 93,62 %
20.06.2022 05:46 12,8 C 12,2 C 8,3 C 94 % 1011,9 hPa 0,0 l/m 0 min 0 min 0 W/m 12,9 km/h (3 Bft) 97,87 %
20.06.2022 05:48 12,8 C 12,2 C 8,3 C 94 % 1011,9 hPa 0,0 l/m 0 min 0 min 0 W/m 16,1 km/h (3 Bft) 95,65 %
20.06.2022 05:50 12,8 C 12,2 C 8,3 C 94 % 1012,0 hPa 0,0 l/m 0 min 0 min 0 W/m 16,1 km/h (3 Bft) 97,87 %
20.06.2022 05:52 12,8 C 12,2 C 8,3 C 94 % 1012,2 hPa 0,0 l/m 0 min 0 min 1 W/m 12,9 km/h (3 Bft) 97,87 %
20.06.2022 05:54 12,8 C 12,2 C 8,3 C 94 % 1012,3 hPa 0,0 l/m 0 min 0 min 5 W/m 6,4 km/h (2 Bft) 95,74 %
20.06.2022 05:56 12,8 C 12,2 C 8,3 C 94 % 1012,4 hPa 0,0 l/m 0 min 0 min 5 W/m 12,9 km/h (3 Bft) 100,00 %
20.06.2022 05:58 12,8 C 12,2 C 8,3 C 93 % 1012,4 hPa 0,0 l/m 0 min 0 min 5 W/m 6,4 km/h (2 Bft) 100,00 %
20.06.2022 06:00 12,8 C 12,2 C 8,3 C 93 % 1012,4 hPa 0,0 l/m 0 min 0 min 6 W/m 6,4 km/h (2 Bft) 97,83 %
20.06.2022 06:02 12,8 C 12,2 C 8,3 C 93 % 1012,6 hPa 0,0 l/m 0 min 0 min 5 W/m 9,7 km/h (2 Bft) 97,87 %
20.06.2022 06:04 12,8 C 12,2 C 8,3 C 93 % 1012,8 hPa 0,0 l/m 0 min 0 min 5 W/m 6,4 km/h (2 Bft) 100,00 %
20.06.2022 06:07 12,8 C 12,2 C 8,3 C 93 % 1013,1 hPa 0,0 l/m 0 min 0 min 5 W/m 12,9 km/h (3 Bft) 97,14 %
20.06.2022 06:08 12,8 C 12,2 C 8,3 C 93 % 1013,1 hPa 0,0 l/m 0 min 0 min 5 W/m 6,4 km/h (2 Bft) 95,83 %
20.06.2022 06:10 12,9 C 12,2 C 8,3 C 93 % 1013,3 hPa 0,0 l/m 0 min 0 min 5 W/m 6,4 km/h (2 Bft) 93,62 %
20.06.2022 06:12 12,9 C 12,2 C 8,3 C 93 % 1013,5 hPa 0,0 l/m 0 min 0 min 1 W/m 12,9 km/h (3 Bft) 97,83 %
20.06.2022 06:14 12,9 C 12,2 C 8,3 C 92 % 1013,7 hPa 0,0 l/m 0 min 0 min 0 W/m 3,2 km/h (1 Bft) 95,74 %
20.06.2022 06:16 12,9 C 12,2 C 8,3 C 92 % 1013,9 hPa 0,0 l/m 0 min 0 min 0 W/m 9,7 km/h (2 Bft) 95,74 %
20.06.2022 06:18 12,9 C 12,8 C 8,3 C 92 % 1014,1 hPa 0,0 l/m 0 min 0 min 0 W/m 3,2 km/h (1 Bft) 95,74 %
20.06.2022 06:20 12,9 C 12,8 C 8,9 C 92 % 1014,1 hPa 0,0 l/m 0 min 0 min 0 W/m 3,2 km/h (1 Bft) 95,74 %
20.06.2022 06:22 13,0 C 12,8 C 8,9 C 92 % 1014,1 hPa 0,0 l/m 0 min 0 min 0 W/m 6,4 km/h (2 Bft) 95,74 %
20.06.2022 06:24 13,1 C 12,8 C 8,9 C 92 % 1014,2 hPa 0,0 l/m 0 min 0 min 0 W/m 3,2 km/h (1 Bft) 93,48 %
20.06.2022 06:26 13,1 C 12,8 C 8,9 C 92 % 1014,3 hPa 0,0 l/m 0 min 0 min 1 W/m 3,2 km/h (1 Bft) 95,74 %
20.06.2022 06:28 13,2 C 12,8 C 8,9 C 92 % 1014,3 hPa 0,0 l/m 0 min 2 min 5 W/m 3,2 km/h (1 Bft) 97,87 %
20.06.2022 06:30 13,2 C 12,8 C 8,9 C 92 % 1014,3 hPa 0,0 l/m 0 min 2 min 5 W/m 3,2 km/h (1 Bft) 95,74 %
20.06.2022 06:32 13,2 C 12,8 C 8,9 C 92 % 1014,4 hPa 0,0 l/m 0 min 2 min 5 W/m 6,4 km/h (2 Bft) 97,87 %
20.06.2022 06:34 13,2 C 12,8 C 8,9 C 92 % 1014,5 hPa 0,0 l/m 0 min 0 min 6 W/m 3,2 km/h (1 Bft) 100,00 %
20.06.2022 06:36 13,2 C 12,8 C 8,9 C 92 % 1014,5 hPa 0,0 l/m 0 min 2 min 7 W/m 3,2 km/h (1 Bft) 100,00 %
20.06.2022 06:38 13,2 C 12,8 C 8,9 C 92 % 1014,5 hPa 0,0 l/m 0 min 2 min 7 W/m 3,2 km/h (1 Bft) 100,00 %
20.06.2022 06:40 13,3 C 12,8 C 8,9 C 92 % 1014,5 hPa 0,0 l/m 0 min 2 min 5 W/m 0,0 km/h (0 Bft) 100,00 %
20.06.2022 06:42 13,3 C 12,8 C 8,9 C 92 % 1014,5 hPa 0,0 l/m 0 min 2 min 6 W/m 0,0 km/h (0 Bft) 100,00 %
20.06.2022 06:44 13,3 C 12,8 C 8,9 C 92 % 1014,5 hPa 0,0 l/m 0 min 2 min 7 W/m 0,0 km/h (0 Bft) 100,00 %
20.06.2022 06:46 13,4 C 12,8 C 8,9 C 92 % 1014,4 hPa 0,0 l/m 0 min 2 min 9 W/m 3,2 km/h (1 Bft) 100,00 %
20.06.2022 06:48 13,4 C 12,8 C 8,9 C 92 % 1014,5 hPa 0,0 l/m 0 min 2 min 9 W/m 0,0 km/h (0 Bft) 100,00 %
20.06.2022 06:50 13,4 C 12,8 C 8,9 C 92 % 1014,5 hPa 0,0 l/m 0 min 2 min 11 W/m 3,2 km/h (1 Bft) 100,00 %
20.06.2022 06:52 13,4 C 12,8 C 8,9 C 92 % 1014,5 hPa 0,0 l/m 0 min 0 min 12 W/m 0,0 km/h (0 Bft) 100,00 %
20.06.2022 06:54 13,5 C 12,8 C 9,4 C 93 % 1014,5 hPa 0,0 l/m 0 min 0 min 13 W/m 0,0 km/h (0 Bft) 100,00 %
20.06.2022 06:56 13,5 C 12,8 C 9,4 C 93 % 1014,5 hPa 0,0 l/m 0 min 0 min 14 W/m 0,0 km/h (0 Bft) 97,87 %
20.06.2022 06:58 13,5 C 12,8 C 9,4 C 93 % 1014,5 hPa 0,0 l/m 0 min 0 min 14 W/m 0,0 km/h (0 Bft) 97,83 %
20.06.2022 07:00 13,6 C 12,8 C 9,4 C 93 % 1014,4 hPa 0,0 l/m 0 min 0 min 16 W/m 3,2 km/h (1 Bft) 100,00 %
20.06.2022 07:02 13,6 C 12,8 C 9,4 C 93 % 1014,4 hPa 0,0 l/m 0 min 0 min 16 W/m 3,2 km/h (1 Bft) 100,00 %
20.06.2022 07:04 13,6 C 12,8 C 9,4 C 93 % 1014,4 hPa 0,0 l/m 0 min 0 min 16 W/m 0,0 km/h (0 Bft) 100,00 %
20.06.2022 07:06 13,6 C 12,8 C 9,4 C 93 % 1014,4 hPa 0,0 l/m 0 min 0 min 16 W/m 0,0 km/h (0 Bft) 97,87 %
20.06.2022 07:08 13,6 C 12,8 C 9,4 C 93 % 1014,4 hPa 0,0 l/m 0 min 0 min 16 W/m 3,2 km/h (1 Bft) 100,00 %
20.06.2022 07:10 13,6 C 12,8 C 8,9 C 93 % 1014,5 hPa 0,0 l/m 0 min 0 min 16 W/m 6,4 km/h (2 Bft) 97,83 %
20.06.2022 07:12 13,6 C 12,8 C 9,4 C 93 % 1014,5 hPa 0,0 l/m 0 min 0 min 18 W/m 3,2 km/h (1 Bft) 97,87 %
20.06.2022 07:14 13,6 C 12,8 C 9,4 C 93 % 1014,4 hPa 0,0 l/m 0 min 0 min 18 W/m 3,2 km/h (1 Bft) 97,87 %
20.06.2022 07:16 13,6 C 12,8 C 9,4 C 93 % 1014,4 hPa 0,0 l/m 0 min 0 min 19 W/m 0,0 km/h (0 Bft) 97,87 %
20.06.2022 07:18 13,6 C 12,8 C 9,4 C 93 % 1014,5 hPa 0,0 l/m 0 min 0 min 19 W/m 3,2 km/h (1 Bft) 97,87 %
20.06.2022 07:20 13,6 C 12,8 C 9,4 C 93 % 1014,5 hPa 0,0 l/m 0 min 0 min 18 W/m 6,4 km/h (2 Bft) 97,87 %
20.06.2022 07:22 13,6 C 12,8 C 9,4 C 94 % 1014,5 hPa 0,0 l/m 0 min 0 min 18 W/m 6,4 km/h (2 Bft) 95,74 %
20.06.2022 07:24 13,6 C 12,8 C 9,4 C 94 % 1014,5 hPa 0,0 l/m 0 min 0 min 18 W/m 3,2 km/h (1 Bft) 97,83 %
20.06.2022 07:26 13,6 C 12,8 C 8,9 C 93 % 1014,5 hPa 0,0 l/m 0 min 0 min 19 W/m 9,7 km/h (2 Bft) 97,87 %
20.06.2022 07:28 13,6 C 12,8 C 8,9 C 93 % 1014,5 hPa 0,0 l/m 0 min 0 min 21 W/m 12,9 km/h (3 Bft) 97,87 %
20.06.2022 07:30 13,5 C 12,8 C 9,4 C 93 % 1014,4 hPa 0,0 l/m 0 min 0 min 23 W/m 3,2 km/h (1 Bft) 97,87 %
20.06.2022 07:32 13,4 C 12,8 C 9,4 C 93 % 1014,4 hPa 0,0 l/m 0 min 0 min 25 W/m 9,7 km/h (2 Bft) 95,74 %
20.06.2022 07:34 13,4 C 12,8 C 9,4 C 93 % 1014,4 hPa 0,0 l/m 0 min 0 min 26 W/m 9,7 km/h (2 Bft) 97,83 %
20.06.2022 07:36 13,4 C 12,8 C 9,4 C 94 % 1014,5 hPa 0,0 l/m 0 min 0 min 27 W/m 9,7 km/h (2 Bft) 97,87 %
20.06.2022 07:38 13,4 C 12,8 C 8,9 C 94 % 1014,5 hPa 0,0 l/m 0 min 0 min 30 W/m 6,4 km/h (2 Bft) 97,87 %
20.06.2022 07:40 13,4 C 12,8 C 8,9 C 94 % 1014,5 hPa 0,0 l/m 0 min 0 min 29 W/m 12,9 km/h (3 Bft) 97,87 %
20.06.2022 07:42 13,4 C 12,8 C 8,9 C 94 % 1014,6 hPa 0,0 l/m 0 min 0 min 26 W/m 9,7 km/h (2 Bft) 95,74 %
20.06.2022 07:44 13,3 C 12,8 C 8,9 C 94 % 1014,6 hPa 0,0 l/m 0 min 0 min 23 W/m 9,7 km/h (2 Bft) 97,87 %
20.06.2022 07:46 13,4 C 12,8 C 8,9 C 94 % 1014,6 hPa 0,0 l/m 0 min 0 min 22 W/m 6,4 km/h (2 Bft) 97,87 %
20.06.2022 07:48 13,4 C 12,8 C 9,4 C 94 % 1014,5 hPa 0,0 l/m 0 min 0 min 26 W/m 3,2 km/h (1 Bft) 95,65 %
20.06.2022 07:50 13,4 C 12,8 C 8,9 C 94 % 1014,5 hPa 0,0 l/m 0 min 0 min 28 W/m 9,7 km/h (2 Bft) 95,74 %
20.06.2022 07:52 13,3 C 12,8 C 8,9 C 94 % 1014,5 hPa 0,0 l/m 0 min 0 min 26 W/m 12,9 km/h (3 Bft) 97,87 %
20.06.2022 07:54 13,3 C 12,8 C 9,4 C 94 % 1014,5 hPa 0,0 l/m 0 min 0 min 24 W/m 3,2 km/h (1 Bft) 97,87 %
20.06.2022 07:56 13,3 C 12,8 C 8,9 C 94 % 1014,5 hPa 0,0 l/m 0 min 0 min 23 W/m 6,4 km/h (2 Bft) 97,87 %
20.06.2022 07:58 13,3 C 12,8 C 8,9 C 94 % 1014,5 hPa 0,0 l/m 0 min 0 min 23 W/m 3,2 km/h (1 Bft) 93,48 %
20.06.2022 08:00 13,3 C 12,8 C 8,9 C 94 % 1014,5 hPa 0,0 l/m 0 min 2 min 25 W/m 6,4 km/h (2 Bft) 95,74 %
20.06.2022 08:02 13,3 C 12,8 C 8,9 C 94 % 1014,4 hPa 0,0 l/m 0 min 2 min 25 W/m 6,4 km/h (2 Bft) 97,87 %
20.06.2022 08:04 13,3 C 12,8 C 8,9 C 94 % 1014,4 hPa 0,0 l/m 0 min 2 min 25 W/m 6,4 km/h (2 Bft) 97,87 %
20.06.2022 08:06 13,3 C 12,8 C 8,9 C 94 % 1014,3 hPa 0,2 l/m 0 min 2 min 25 W/m 6,4 km/h (2 Bft) 97,87 %
20.06.2022 08:08 13,3 C 12,8 C 8,9 C 94 % 1014,3 hPa 0,0 l/m 0 min 2 min 26 W/m 6,4 km/h (2 Bft) 97,87 %
20.06.2022 08:10 13,3 C 12,8 C 8,9 C 94 % 1014,2 hPa 0,0 l/m 0 min 2 min 25 W/m 12,9 km/h (3 Bft) 89,36 %
20.06.2022 08:12 13,3 C 12,8 C 8,9 C 94 % 1014,1 hPa 0,0 l/m 0 min 2 min 25 W/m 6,4 km/h (2 Bft) 44,83 %
20.06.2022 08:14 13,3 C 12,8 C 8,9 C 94 % 1014,3 hPa 0,0 l/m 0 min 2 min 25 W/m 9,7 km/h (2 Bft) 95,74 %
20.06.2022 08:16 13,3 C 12,2 C 8,9 C 94 % 1014,5 hPa 0,2 l/m 0 min 2 min 23 W/m 3,2 km/h (1 Bft) 97,87 %
20.06.2022 08:18 13,3 C 12,2 C 8,9 C 94 % 1014,5 hPa 0,0 l/m 0 min 2 min 23 W/m 3,2 km/h (1 Bft) 97,87 %
20.06.2022 08:20 13,2 C 12,2 C 8,9 C 94 % 1014,4 hPa 0,0 l/m 0 min 0 min 27 W/m 3,2 km/h (1 Bft) 100,00 %
20.06.2022 08:22 13,2 C 12,2 C 8,9 C 94 % 1014,3 hPa 0,0 l/m 0 min 0 min 32 W/m 3,2 km/h (1 Bft) 97,83 %
20.06.2022 08:24 13,2 C 12,2 C 8,9 C 94 % 1014,3 hPa 0,0 l/m 0 min 2 min 36 W/m 3,2 km/h (1 Bft) 100,00 %
20.06.2022 08:26 13,2 C 12,2 C 8,9 C 94 % 1014,4 hPa 0,0 l/m 0 min 2 min 37 W/m 0,0 km/h (0 Bft) 95,74 %
20.06.2022 08:28 13,3 C 12,2 C 8,9 C 94 % 1014,4 hPa 0,0 l/m 0 min 2 min 38 W/m 6,4 km/h (2 Bft) 95,74 %
20.06.2022 08:30 13,3 C 12,2 C 8,9 C 94 % 1014,4 hPa 0,2 l/m 0 min 2 min 42 W/m 3,2 km/h (1 Bft) 97,87 %
20.06.2022 08:32 13,3 C 12,2 C 8,9 C 94 % 1014,4 hPa 0,0 l/m 0 min 2 min 43 W/m 3,2 km/h (1 Bft) 95,74 %
20.06.2022 08:34 13,3 C 12,2 C 8,9 C 94 % 1014,5 hPa 0,0 l/m 0 min 2 min 40 W/m 3,2 km/h (1 Bft) 97,83 %
20.06.2022 08:36 13,4 C 12,2 C 8,9 C 94 % 1014,5 hPa 0,0 l/m 0 min 0 min 41 W/m 6,4 km/h (2 Bft) 95,74 %
20.06.2022 08:38 13,3 C 12,2 C 8,9 C 94 % 1014,5 hPa 0,0 l/m 0 min 0 min 44 W/m 9,7 km/h (2 Bft) 97,87 %
20.06.2022 08:40 13,3 C 12,8 C 8,9 C 94 % 1014,4 hPa 0,0 l/m 0 min 2 min 51 W/m 3,2 km/h (1 Bft) 97,96 %
20.06.2022 08:42 13,3 C 12,8 C 8,9 C 94 % 1014,4 hPa 0,0 l/m 0 min 0 min 64 W/m 3,2 km/h (1 Bft) 95,74 %
20.06.2022 08:44 13,3 C 12,8 C 9,4 C 94 % 1014,5 hPa 0,0 l/m 0 min 0 min 73 W/m 3,2 km/h (1 Bft) 97,87 %
20.06.2022 08:46 13,3 C 12,8 C 9,4 C 94 % 1014,5 hPa 0,0 l/m 0 min 2 min 68 W/m 3,2 km/h (1 Bft) 95,65 %
20.06.2022 08:48 13,3 C 12,8 C 8,9 C 94 % 1014,5 hPa 0,0 l/m 0 min 2 min 56 W/m 6,4 km/h (2 Bft) 97,87 %
20.06.2022 08:50 13,3 C 12,8 C 9,4 C 94 % 1014,4 hPa 0,0 l/m 0 min 0 min 56 W/m 3,2 km/h (1 Bft) 97,87 %
20.06.2022 08:52 13,4 C 12,8 C 9,4 C 94 % 1014,5 hPa 0,0 l/m 0 min 0 min 60 W/m 3,2 km/h (1 Bft) 97,87 %
20.06.2022 08:54 13,4 C 12,8 C 9,4 C 94 % 1014,5 hPa 0,0 l/m 0 min 0 min 58 W/m 3,2 km/h (1 Bft) 97,87 %
20.06.2022 08:56 13,4 C 12,8 C 9,4 C 94 % 1014,5 hPa 0,0 l/m 0 min 0 min 61 W/m 3,2 km/h (1 Bft) 95,74 %
20.06.2022 08:58 13,4 C 12,8 C 8,9 C 94 % 1014,5 hPa 0,0 l/m 0 min 2 min 62 W/m 6,4 km/h (2 Bft) 97,83 %
20.06.2022 09:00 13,4 C 12,8 C 8,9 C 94 % 1014,5 hPa 0,0 l/m 0 min 2 min 64 W/m 6,4 km/h (2 Bft) 97,87 %
20.06.2022 09:02 13,4 C 12,8 C 8,9 C 94 % 1014,5 hPa 0,0 l/m 0 min 2 min 73 W/m 6,4 km/h (2 Bft) 95,74 %
20.06.2022 09:04 13,4 C 13,3 C 8,9 C 94 % 1014,5 hPa 0,0 l/m 0 min 0 min 86 W/m 6,4 km/h (2 Bft) 97,87 %
20.06.2022 09:06 13,4 C 13,3 C 8,9 C 94 % 1014,6 hPa 0,0 l/m 0 min 0 min 94 W/m 3,2 km/h (1 Bft) 97,87 %
20.06.2022 09:08 13,4 C 13,3 C 9,4 C 94 % 1014,6 hPa 0,0 l/m 0 min 0 min 87 W/m 9,7 km/h (2 Bft) 97,87 %
20.06.2022 09:10 13,4 C 13,3 C 9,4 C 94 % 1014,7 hPa 0,0 l/m 0 min 0 min 85 W/m 6,4 km/h (2 Bft) 97,83 %
20.06.2022 09:12 13,4 C 13,3 C 9,4 C 94 % 1014,8 hPa 0,0 l/m 0 min 2 min 79 W/m 9,7 km/h (2 Bft) 97,87 %
20.06.2022 09:14 13,4 C 13,3 C 9,4 C 94 % 1014,9 hPa 0,0 l/m 0 min 2 min 69 W/m 3,2 km/h (1 Bft) 97,87 %
20.06.2022 09:16 13,5 C 13,3 C 9,4 C 94 % 1014,9 hPa 0,0 l/m 0 min 0 min 66 W/m 6,4 km/h (2 Bft) 97,87 %
20.06.2022 09:18 13,5 C 13,3 C 9,4 C 93 % 1014,9 hPa 0,0 l/m 0 min 0 min 74 W/m 3,2 km/h (1 Bft) 97,87 %
20.06.2022 09:20 13,6 C 13,3 C 9,4 C 93 % 1015,0 hPa 0,0 l/m 0 min 0 min 96 W/m 3,2 km/h (1 Bft) 97,87 %
20.06.2022 09:22 13,6 C 13,3 C 9,4 C 93 % 1015,0 hPa 0,0 l/m 0 min 0 min 127 W/m 3,2 km/h (1 Bft) 95,65 %
20.06.2022 09:24 13,7 C 13,3 C 9,4 C 94 % 1015,0 hPa 0,0 l/m 0 min 0 min 144 W/m 3,2 km/h (1 Bft) 97,87 %
20.06.2022 09:26 13,7 C 13,9 C 10,0 C 94 % 1015,0 hPa 0,0 l/m 0 min 0 min 161 W/m 3,2 km/h (1 Bft) 95,74 %
20.06.2022 09:28 13,8 C 13,9 C 10,0 C 94 % 1015,1 hPa 0,0 l/m 0 min 0 min 197 W/m 6,4 km/h (2 Bft) 97,87 %
20.06.2022 09:30 13,9 C 14,4 C 10,0 C 94 % 1015,1 hPa 0,0 l/m 0 min 0 min 250 W/m 6,4 km/h (2 Bft) 100,00 %
20.06.2022 09:32 14,0 C 15,0 C 10,6 C 94 % 1015,1 hPa 0,0 l/m 2 min 0 min 319 W/m 6,4 km/h (2 Bft) 97,87 %
20.06.2022 09:34 14,1 C 15,6 C 10,6 C 94 % 1015,1 hPa 0,0 l/m 2 min 0 min 312 W/m 9,7 km/h (2 Bft) 91,30 %
20.06.2022 09:36 14,1 C 15,6 C 10,6 C 93 % 1015,1 hPa 0,0 l/m 0 min 0 min 283 W/m 16,1 km/h (3 Bft) 97,87 %
20.06.2022 09:38 14,1 C 15,6 C 10,6 C 93 % 1015,1 hPa 0,0 l/m 0 min 0 min 259 W/m 22,5 km/h (4 Bft) 95,74 %
20.06.2022 09:40 14,2 C 15,6 C 10,6 C 93 % 1015,2 hPa 0,0 l/m 0 min 0 min 243 W/m 9,7 km/h (2 Bft) 95,74 %
20.06.2022 09:42 14,3 C 15,6 C 10,6 C 93 % 1015,2 hPa 0,0 l/m 0 min 0 min 207 W/m 12,9 km/h (3 Bft) 95,74 %
20.06.2022 09:44 14,3 C 15,0 C 10,6 C 93 % 1015,2 hPa 0,0 l/m 0 min 0 min 184 W/m 9,7 km/h (2 Bft) 95,74 %
20.06.2022 09:46 14,3 C 15,0 C 10,6 C 93 % 1015,2 hPa 0,0 l/m 0 min 0 min 204 W/m 9,7 km/h (2 Bft) 95,65 %
20.06.2022 09:48 14,3 C 15,6 C 11,1 C 93 % 1015,2 hPa 0,0 l/m 0 min 0 min 242 W/m 9,7 km/h (2 Bft) 93,62 %
20.06.2022 09:50 14,4 C 16,1 C 11,7 C 92 % 1015,2 hPa 0,0 l/m 2 min 0 min 346 W/m 12,9 km/h (3 Bft) 91,49 %
20.06.2022 09:52 14,6 C 16,7 C 12,2 C 92 % 1015,1 hPa 0,0 l/m 2 min 0 min 410 W/m 12,9 km/h (3 Bft) 95,74 %
20.06.2022 09:54 14,7 C 17,2 C 12,8 C 92 % 1015,1 hPa 0,0 l/m 2 min 0 min 424 W/m 9,7 km/h (2 Bft) 95,74 %
20.06.2022 09:56 14,8 C 17,8 C 13,3 C 92 % 1015,1 hPa 0,0 l/m 2 min 0 min 501 W/m 12,9 km/h (3 Bft) 95,74 %
20.06.2022 09:58 14,9 C 17,8 C 13,9 C 91 % 1015,1 hPa 0,0 l/m 2 min 0 min 528 W/m 12,9 km/h (3 Bft) 95,65 %
20.06.2022 10:00 15,1 C 18,3 C 13,9 C 90 % 1015,2 hPa 0,0 l/m 2 min 0 min 609 W/m 22,5 km/h (4 Bft) 95,74 %
20.06.2022 10:02 15,2 C 18,9 C 14,4 C 90 % 1015,2 hPa 0,0 l/m 2 min 0 min 575 W/m 16,1 km/h (3 Bft) 95,74 %
20.06.2022 10:04 15,2 C 18,3 C 14,4 C 89 % 1015,2 hPa 0,0 l/m 0 min 0 min 334 W/m 9,7 km/h (2 Bft) 93,62 %
20.06.2022 10:06 15,4 C 18,9 C 15,0 C 89 % 1015,2 hPa 0,0 l/m 2 min 0 min 406 W/m 16,1 km/h (3 Bft) 97,87 %
20.06.2022 10:08 15,6 C 20,0 C 15,0 C 89 % 1015,2 hPa 0,0 l/m 2 min 0 min 709 W/m 6,4 km/h (2 Bft) 95,74 %
20.06.2022 10:10 15,8 C 20,6 C 15,6 C 88 % 1015,3 hPa 0,0 l/m 2 min 0 min 746 W/m 12,9 km/h (3 Bft) 97,83 %
20.06.2022 10:12 15,9 C 19,4 C 15,6 C 86 % 1015,3 hPa 0,0 l/m 2 min 0 min 525 W/m 9,7 km/h (2 Bft) 97,87 %
20.06.2022 10:14 16,0 C 19,4 C 16,1 C 86 % 1015,4 hPa 0,0 l/m 2 min 0 min 531 W/m 16,1 km/h (3 Bft) 97,87 %
20.06.2022 10:16 16,1 C 19,4 C 16,7 C 84 % 1015,4 hPa 0,0 l/m 2 min 0 min 763 W/m 9,7 km/h (2 Bft) 97,87 %
20.06.2022 10:18 16,3 C 20,6 C 16,7 C 84 % 1015,4 hPa 0,0 l/m 2 min 0 min 763 W/m 9,7 km/h (2 Bft) 97,87 %
20.06.2022 10:20 16,4 C 20,6 C 16,7 C 83 % 1015,4 hPa 0,0 l/m 2 min 0 min 795 W/m 9,7 km/h (2 Bft) 97,87 %
20.06.2022 10:22 16,4 C 20,0 C 16,1 C 82 % 1015,4 hPa 0,0 l/m 2 min 0 min 651 W/m 16,1 km/h (3 Bft) 97,83 %
20.06.2022 10:24 16,6 C 20,6 C 16,7 C 82 % 1015,5 hPa 0,0 l/m 2 min 0 min 518 W/m 6,4 km/h (2 Bft) 97,87 %
20.06.2022 10:26 16,7 C 20,0 C 16,7 C 82 % 1015,5 hPa 0,0 l/m 2 min 0 min 817 W/m 6,4 km/h (2 Bft) 97,87 %
20.06.2022 10:28 16,8 C 19,4 C 16,7 C 81 % 1015,5 hPa 0,0 l/m 2 min 0 min 826 W/m 12,9 km/h (3 Bft) 97,87 %
20.06.2022 10:30 16,9 C 20,0 C 16,7 C 81 % 1015,5 hPa 0,0 l/m 2 min 0 min 845 W/m 19,3 km/h (3 Bft) 95,74 %
20.06.2022 10:32 17,0 C 20,6 C 17,8 C 80 % 1015,6 hPa 0,0 l/m 2 min 0 min 880 W/m 6,4 km/h (2 Bft) 97,87 %
20.06.2022 10:34 17,2 C 20,6 C 18,3 C 80 % 1015,7 hPa 0,0 l/m 2 min 0 min 878 W/m 16,1 km/h (3 Bft) 100,00 %
20.06.2022 10:36 17,2 C 20,6 C 18,3 C 77 % 1015,7 hPa 0,0 l/m 2 min 0 min 895 W/m 16,1 km/h (3 Bft) 97,87 %
20.06.2022 10:38 17,3 C 20,6 C 18,3 C 78 % 1015,7 hPa 0,0 l/m 2 min 0 min 899 W/m 12,9 km/h (3 Bft) 100,00 %
20.06.2022 10:40 17,3 C 20,6 C 18,3 C 78 % 1015,6 hPa 0,0 l/m 2 min 0 min 894 W/m 22,5 km/h (4 Bft) 100,00 %
20.06.2022 10:42 17,3 C 18,9 C 16,7 C 77 % 1015,7 hPa 0,0 l/m 2 min 0 min 537 W/m 16,1 km/h (3 Bft) 97,87 %
20.06.2022 10:44 17,3 C 18,3 C 15,6 C 77 % 1015,7 hPa 0,0 l/m 0 min 0 min 156 W/m 16,1 km/h (3 Bft) 100,00 %
20.06.2022 10:46 17,2 C 17,8 C 14,4 C 76 % 1015,7 hPa 0,0 l/m 0 min 0 min 168 W/m 19,3 km/h (3 Bft) 100,00 %
20.06.2022 10:48 17,1 C 17,8 C 15,0 C 76 % 1015,8 hPa 0,0 l/m 0 min 0 min 255 W/m 12,9 km/h (3 Bft) 100,00 %
20.06.2022 10:50 16,9 C 17,2 C 14,4 C 76 % 1015,8 hPa 0,0 l/m 0 min 0 min 246 W/m 16,1 km/h (3 Bft) 100,00 %
20.06.2022 10:52 16,9 C 17,2 C 13,9 C 76 % 1015,8 hPa 0,0 l/m 0 min 0 min 247 W/m 16,1 km/h (3 Bft) 100,00 %
20.06.2022 10:54 16,8 C 17,2 C 14,4 C 76 % 1015,9 hPa 0,0 l/m 0 min 0 min 331 W/m 19,3 km/h (3 Bft) 100,00 %
20.06.2022 10:56 16,8 C 17,2 C 14,4 C 76 % 1015,9 hPa 0,0 l/m 0 min 0 min 315 W/m 9,7 km/h (2 Bft) 100,00 %
20.06.2022 10:58 16,8 C 17,8 C 14,4 C 76 % 1015,9 hPa 0,0 l/m 0 min 0 min 308 W/m 3,2 km/h (1 Bft) 100,00 %
20.06.2022 11:00 16,8 C 17,2 C 14,4 C 75 % 1015,9 hPa 0,0 l/m 0 min 0 min 275 W/m 9,7 km/h (2 Bft) 100,00 %
20.06.2022 11:02 16,7 C 17,8 C 13,9 C 75 % 1015,9 hPa 0,0 l/m 0 min 0 min 256 W/m 9,7 km/h (2 Bft) 100,00 %
20.06.2022 11:04 16,8 C 17,8 C 13,9 C 76 % 1015,9 hPa 0,0 l/m 0 min 0 min 294 W/m 6,4 km/h (2 Bft) 100,00 %
20.06.2022 11:06 16,8 C 18,3 C 14,4 C 75 % 1015,9 hPa 0,0 l/m 2 min 0 min 642 W/m 12,9 km/h (3 Bft) 100,00 %
20.06.2022 11:08 16,9 C 19,4 C 14,4 C 76 % 1015,9 hPa 0,0 l/m 2 min 0 min 922 W/m 12,9 km/h (3 Bft) 100,00 %
20.06.2022 11:10 17,0 C 20,0 C 14,4 C 75 % 1015,9 hPa 0,0 l/m 2 min 0 min 899 W/m 16,1 km/h (3 Bft) 97,87 %
20.06.2022 11:12 17,1 C 20,0 C 14,4 C 74 % 1015,8 hPa 0,0 l/m 2 min 0 min 418 W/m 6,4 km/h (2 Bft) 97,87 %
20.06.2022 11:14 17,2 C 19,4 C 15,0 C 74 % 1015,8 hPa 0,0 l/m 0 min 0 min 371 W/m 9,7 km/h (2 Bft) 100,00 %
20.06.2022 11:16 17,2 C 18,9 C 15,0 C 73 % 1015,8 hPa 0,0 l/m 0 min 0 min 304 W/m 12,9 km/h (3 Bft) 100,00 %
20.06.2022 11:18 17,3 C 18,3 C 14,4 C 73 % 1015,9 hPa 0,0 l/m 0 min 0 min 273 W/m 16,1 km/h (3 Bft) 97,87 %
20.06.2022 11:20 17,2 C 18,3 C 14,4 C 72 % 1015,9 hPa 0,0 l/m 0 min 0 min 309 W/m 12,9 km/h (3 Bft) 100,00 %
20.06.2022 11:22 17,2 C 17,8 C 14,4 C 72 % 1016,0 hPa 0,0 l/m 0 min 0 min 347 W/m 12,9 km/h (3 Bft) 100,00 %
20.06.2022 11:24 17,1 C 17,8 C 13,9 C 72 % 1016,0 hPa 0,0 l/m 0 min 0 min 313 W/m 19,3 km/h (3 Bft) 97,87 %
20.06.2022 11:26 17,1 C 17,8 C 14,4 C 72 % 1016,1 hPa 0,0 l/m 0 min 0 min 278 W/m 19,3 km/h (3 Bft) 95,74 %
20.06.2022 11:28 17,2 C 18,9 C 16,1 C 72 % 1016,1 hPa 0,0 l/m 0 min 0 min 278 W/m 12,9 km/h (3 Bft) 93,62 %
20.06.2022 11:30 17,4 C 20,0 C 16,7 C 73 % 1016,1 hPa 0,0 l/m 2 min 0 min 791 W/m 19,3 km/h (3 Bft) 95,74 %
20.06.2022 11:32 17,6 C 20,6 C 16,7 C 71 % 1016,1 hPa 0,0 l/m 2 min 0 min 794 W/m 12,9 km/h (3 Bft) 93,48 %
20.06.2022 11:34 17,7 C 20,6 C 16,7 C 70 % 1016,1 hPa 0,0 l/m 2 min 0 min 796 W/m 19,3 km/h (3 Bft) 95,74 %
20.06.2022 11:36 17,8 C 20,6 C 16,7 C 69 % 1016,1 hPa 0,0 l/m 2 min 0 min 762 W/m 9,7 km/h (2 Bft) 93,62 %
20.06.2022 11:38 17,9 C 20,0 C 16,1 C 69 % 1016,1 hPa 0,0 l/m 2 min 0 min 423 W/m 12,9 km/h (3 Bft) 93,62 %
20.06.2022 11:40 17,9 C 19,4 C 15,6 C 69 % 1016,1 hPa 0,0 l/m 0 min 0 min 313 W/m 19,3 km/h (3 Bft) 95,74 %
20.06.2022 11:42 17,9 C 19,4 C 15,6 C 70 % 1016,2 hPa 0,0 l/m 2 min 0 min 425 W/m 19,3 km/h (3 Bft) 95,74 %
20.06.2022 11:44 17,9 C 18,9 C 15,0 C 69 % 1016,1 hPa 0,0 l/m 0 min 0 min 361 W/m 25,7 km/h (4 Bft) 95,74 %
20.06.2022 11:46 17,9 C 18,9 C 16,1 C 69 % 1016,1 hPa 0,0 l/m 0 min 0 min 350 W/m 22,5 km/h (4 Bft) 95,65 %
20.06.2022 11:48 17,9 C 19,4 C 16,1 C 69 % 1016,1 hPa 0,0 l/m 0 min 0 min 359 W/m 16,1 km/h (3 Bft) 95,74 %
20.06.2022 11:50 17,9 C 18,9 C 16,1 C 69 % 1016,1 hPa 0,0 l/m 2 min 0 min 436 W/m 12,9 km/h (3 Bft) 95,74 %
20.06.2022 11:52 17,9 C 18,9 C 15,6 C 70 % 1016,1 hPa 0,0 l/m 2 min 0 min 432 W/m 6,4 km/h (2 Bft) 95,74 %
20.06.2022 11:54 18,0 C 18,9 C 15,6 C 70 % 1016,1 hPa 0,0 l/m 2 min 0 min 431 W/m 12,9 km/h (3 Bft) 95,74 %
20.06.2022 11:56 18,0 C 18,9 C 15,6 C 70 % 1016,2 hPa 0,0 l/m 0 min 0 min 388 W/m 12,9 km/h (3 Bft) 93,48 %
20.06.2022 11:58 17,9 C 18,9 C 15,6 C 69 % 1016,2 hPa 0,0 l/m 0 min 0 min 358 W/m 16,1 km/h (3 Bft) 95,74 %
20.06.2022 12:00 17,9 C 18,9 C 15,6 C 69 % 1016,3 hPa 0,0 l/m 0 min 0 min 360 W/m 9,7 km/h (2 Bft) 95,74 %
20.06.2022 12:02 17,9 C 18,9 C 16,1 C 70 % 1016,2 hPa 0,0 l/m 0 min 0 min 364 W/m 3,2 km/h (1 Bft) 93,62 %
20.06.2022 12:04 17,9 C 18,9 C 16,7 C 70 % 1016,3 hPa 0,0 l/m 0 min 0 min 364 W/m 12,9 km/h (3 Bft) 95,74 %
20.06.2022 12:08 17,9 C 20,0 C 19,4 C 70 % 1016,3 hPa 0,0 l/m 4 min 0 min 746 W/m 16,1 km/h (3 Bft) 98,94 %
20.06.2022 12:10 18,1 C 21,1 C 20,6 C 70 % 1016,2 hPa 0,0 l/m 2 min 0 min 998 W/m 9,7 km/h (2 Bft) 97,83 %
20.06.2022 12:12 18,2 C 21,1 C 21,7 C 69 % 1016,3 hPa 0,0 l/m 2 min 0 min 1028 W/m 9,7 km/h (2 Bft) 100,00 %
20.06.2022 12:14 18,3 C 22,2 C 22,8 C 68 % 1016,2 hPa 0,0 l/m 2 min 0 min 1074 W/m 6,4 km/h (2 Bft) 100,00 %
20.06.2022 12:16 18,4 C 22,8 C 23,3 C 69 % 1016,3 hPa 0,0 l/m 2 min 0 min 1144 W/m 12,9 km/h (3 Bft) 100,00 %
20.06.2022 12:18 18,7 C 22,8 C 23,3 C 68 % 1016,2 hPa 0,0 l/m 2 min 0 min 1156 W/m 6,4 km/h (2 Bft) 95,74 %
20.06.2022 12:20 18,8 C 22,2 C 21,1 C 67 % 1016,3 hPa 0,0 l/m 2 min 0 min 525 W/m 12,9 km/h (3 Bft) 100,00 %
20.06.2022 12:22 18,8 C 21,7 C 19,4 C 68 % 1016,3 hPa 0,0 l/m 0 min 0 min 308 W/m 9,7 km/h (2 Bft) 97,87 %
20.06.2022 12:24 18,9 C 20,6 C 18,9 C 68 % 1016,3 hPa 0,0 l/m 0 min 0 min 267 W/m 9,7 km/h (2 Bft) 100,00 %
20.06.2022 12:26 18,9 C 20,6 C 17,8 C 68 % 1016,3 hPa 0,0 l/m 0 min 0 min 253 W/m 9,7 km/h (2 Bft) 100,00 %
20.06.2022 12:28 18,8 C 20,0 C 17,2 C 68 % 1016,3 hPa 0,0 l/m 0 min 0 min 256 W/m 3,2 km/h (1 Bft) 100,00 %
20.06.2022 12:30 18,8 C 19,4 C 16,7 C 68 % 1016,3 hPa 0,0 l/m 0 min 0 min 281 W/m 6,4 km/h (2 Bft) 100,00 %
20.06.2022 12:32 18,8 C 20,0 C 16,7 C 68 % 1016,4 hPa 0,0 l/m 0 min 0 min 348 W/m 9,7 km/h (2 Bft) 100,00 %
20.06.2022 12:34 18,8 C 19,4 C 17,8 C 68 % 1016,4 hPa 0,0 l/m 0 min 0 min 394 W/m 6,4 km/h (2 Bft) 100,00 %
20.06.2022 12:36 18,8 C 19,4 C 17,8 C 68 % 1016,4 hPa 0,0 l/m 0 min 0 min 403 W/m 6,4 km/h (2 Bft) 100,00 %
20.06.2022 12:38 18,8 C 19,4 C 18,3 C 67 % 1016,4 hPa 0,0 l/m 0 min 0 min 355 W/m 6,4 km/h (2 Bft) 100,00 %
20.06.2022 12:40 18,8 C 19,4 C 18,9 C 67 % 1016,4 hPa 0,0 l/m 0 min 0 min 332 W/m 6,4 km/h (2 Bft) 100,00 %
20.06.2022 12:42 18,8 C 20,0 C 20,0 C 68 % 1016,4 hPa 0,0 l/m 0 min 0 min 447 W/m 9,7 km/h (2 Bft) 100,00 %
20.06.2022 12:44 18,9 C 20,6 C 21,1 C 68 % 1016,4 hPa 0,0 l/m 2 min 0 min 758 W/m 6,4 km/h (2 Bft) 100,00 %
20.06.2022 12:46 19,1 C 20,6 C 20,6 C 67 % 1016,4 hPa 0,0 l/m 2 min 0 min 758 W/m 9,7 km/h (2 Bft) 97,83 %
20.06.2022 12:48 19,1 C 20,6 C 20,0 C 66 % 1016,5 hPa 0,0 l/m 2 min 0 min 758 W/m 12,9 km/h (3 Bft) 100,00 %
20.06.2022 12:50 19,2 C 21,1 C 20,0 C 65 % 1016,5 hPa 0,0 l/m 0 min 0 min 414 W/m 12,9 km/h (3 Bft) 100,00 %
20.06.2022 12:52 19,3 C 20,6 C 18,9 C 64 % 1016,5 hPa 0,0 l/m 0 min 0 min 291 W/m 3,2 km/h (1 Bft) 100,00 %
20.06.2022 12:54 19,2 C 20,0 C 18,3 C 65 % 1016,5 hPa 0,0 l/m 0 min 0 min 238 W/m 9,7 km/h (2 Bft) 100,00 %
20.06.2022 12:56 19,2 C 20,0 C 19,4 C 66 % 1016,5 hPa 0,0 l/m 2 min 0 min 610 W/m 12,9 km/h (3 Bft) 100,00 %
20.06.2022 12:58 19,1 C 19,4 C 19,4 C 65 % 1016,5 hPa 0,0 l/m 2 min 0 min 608 W/m 6,4 km/h (2 Bft) 97,83 %
20.06.2022 13:00 19,1 C 20,6 C 21,7 C 67 % 1016,5 hPa 0,0 l/m 2 min 0 min 833 W/m 9,7 km/h (2 Bft) 100,00 %
20.06.2022 13:02 19,3 C 21,1 C 23,9 C 67 % 1016,5 hPa 0,0 l/m 2 min 0 min 1068 W/m 3,2 km/h (1 Bft) 100,00 %
20.06.2022 13:04 19,4 C 21,7 C 24,4 C 66 % 1016,5 hPa 0,0 l/m 2 min 0 min 1080 W/m 16,1 km/h (3 Bft) 100,00 %
20.06.2022 13:06 19,6 C 22,2 C 25,0 C 65 % 1016,5 hPa 0,0 l/m 2 min 0 min 1128 W/m 12,9 km/h (3 Bft) 100,00 %
20.06.2022 13:08 19,7 C 22,2 C 25,0 C 64 % 1016,5 hPa 0,0 l/m 2 min 0 min 1197 W/m 9,7 km/h (2 Bft) 100,00 %
20.06.2022 13:10 19,9 C 22,2 C 24,4 C 65 % 1016,6 hPa 0,0 l/m 2 min 0 min 1204 W/m 6,4 km/h (2 Bft) 100,00 %
20.06.2022 13:12 20,1 C 22,2 C 24,4 C 65 % 1016,5 hPa 0,0 l/m 2 min 0 min 871 W/m 12,9 km/h (3 Bft) 100,00 %
20.06.2022 13:14 20,1 C 21,7 C 23,9 C 63 % 1016,5 hPa 0,0 l/m 2 min 0 min 872 W/m 6,4 km/h (2 Bft) 100,00 %
20.06.2022 13:16 20,1 C 21,7 C 23,3 C 63 % 1016,5 hPa 0,0 l/m 2 min 0 min 872 W/m 6,4 km/h (2 Bft) 94,59 %
20.06.2022 13:18 20,1 C 21,1 C 21,7 C 63 % 1016,5 hPa 0,0 l/m 2 min 0 min 996 W/m 12,9 km/h (3 Bft) 97,87 %
20.06.2022 13:20 20,0 C 20,6 C 20,6 C 62 % 1016,5 hPa 0,0 l/m 0 min 0 min 365 W/m 6,4 km/h (2 Bft) 100,00 %
20.06.2022 13:22 19,9 C 20,6 C 19,4 C 63 % 1016,6 hPa 0,0 l/m 0 min 0 min 359 W/m 12,9 km/h (3 Bft) 97,87 %
20.06.2022 13:24 19,7 C 20,0 C 18,3 C 64 % 1016,5 hPa 0,0 l/m 0 min 0 min 329 W/m 12,9 km/h (3 Bft) 100,00 %
20.06.2022 13:26 19,6 C 20,0 C 18,3 C 64 % 1016,5 hPa 0,0 l/m 0 min 0 min 352 W/m 12,9 km/h (3 Bft) 97,87 %
20.06.2022 13:28 19,6 C 20,0 C 17,8 C 64 % 1016,5 hPa 0,0 l/m 0 min 0 min 311 W/m 6,4 km/h (2 Bft) 100,00 %
20.06.2022 13:30 19,6 C 19,4 C 17,2 C 64 % 1016,5 hPa 0,0 l/m 0 min 0 min 291 W/m 9,7 km/h (2 Bft) 100,00 %
20.06.2022 13:32 19,5 C 20,6 C 19,4 C 64 % 1016,5 hPa 0,0 l/m 0 min 0 min 334 W/m 6,4 km/h (2 Bft) 97,87 %
20.06.2022 13:34 19,6 C 21,1 C 21,1 C 64 % 1016,5 hPa 0,0 l/m 2 min 0 min 1044 W/m 16,1 km/h (3 Bft) 95,65 %
20.06.2022 13:36 19,7 C 21,1 C 21,1 C 63 % 1016,5 hPa 0,0 l/m 2 min 0 min 1071 W/m 12,9 km/h (3 Bft) 96,61 %
20.06.2022 13:38 19,8 C 22,2 C 22,8 C 63 % 1016,5 hPa 0,0 l/m 2 min 0 min 1074 W/m 6,4 km/h (2 Bft) 100,00 %
20.06.2022 13:40 20,0 C 22,2 C 22,8 C 64 % 1016,5 hPa 0,0 l/m 2 min 0 min 1076 W/m 12,9 km/h (3 Bft) 95,74 %
20.06.2022 13:42 20,0 C 21,7 C 21,7 C 62 % 1016,5 hPa 0,0 l/m 2 min 0 min 564 W/m 12,9 km/h (3 Bft) 93,62 %
20.06.2022 13:44 20,1 C 21,1 C 20,6 C 62 % 1016,6 hPa 0,0 l/m 2 min 0 min 483 W/m 9,7 km/h (2 Bft) 97,87 %
20.06.2022 13:46 20,0 C 21,1 C 20,6 C 63 % 1016,5 hPa 0,0 l/m 2 min 0 min 523 W/m 16,1 km/h (3 Bft) 95,65 %
20.06.2022 13:48 20,1 C 21,7 C 21,1 C 62 % 1016,5 hPa 0,0 l/m 2 min 0 min 1017 W/m 9,7 km/h (2 Bft) 93,62 %
20.06.2022 13:50 20,1 C 21,7 C 20,6 C 63 % 1016,5 hPa 0,0 l/m 2 min 0 min 607 W/m 12,9 km/h (3 Bft) 95,74 %
20.06.2022 13:52 20,1 C 21,1 C 19,4 C 60 % 1016,5 hPa 0,0 l/m 0 min 0 min 299 W/m 12,9 km/h (3 Bft) 95,74 %
20.06.2022 13:54 20,1 C 21,1 C 18,3 C 60 % 1016,5 hPa 0,0 l/m 0 min 0 min 342 W/m 9,7 km/h (2 Bft) 93,62 %
20.06.2022 13:56 20,1 C 21,7 C 18,9 C 62 % 1016,6 hPa 0,0 l/m 2 min 0 min 843 W/m 9,7 km/h (2 Bft) 93,62 %
20.06.2022 13:58 20,2 C 22,2 C 19,4 C 62 % 1016,5 hPa 0,0 l/m 2 min 0 min 872 W/m 16,1 km/h (3 Bft) 93,48 %
20.06.2022 14:00 20,3 C 22,2 C 19,4 C 61 % 1016,6 hPa 0,0 l/m 2 min 0 min 873 W/m 12,9 km/h (3 Bft) 93,62 %
20.06.2022 14:02 20,3 C 21,7 C 18,9 C 61 % 1016,5 hPa 0,0 l/m 0 min 0 min 333 W/m 16,1 km/h (3 Bft) 89,36 %
20.06.2022 14:04 20,3 C 22,2 C 18,9 C 60 % 1016,5 hPa 0,0 l/m 2 min 0 min 498 W/m 16,1 km/h (3 Bft) 93,62 %
20.06.2022 14:06 20,4 C 22,8 C 18,3 C 60 % 1016,5 hPa 0,0 l/m 2 min 0 min 999 W/m 19,3 km/h (3 Bft) 93,62 %
20.06.2022 14:08 20,6 C 23,3 C 18,3 C 59 % 1016,5 hPa 0,0 l/m 2 min 0 min 1182 W/m 19,3 km/h (3 Bft) 93,62 %
20.06.2022 14:10 20,7 C 23,3 C 18,9 C 56 % 1016,4 hPa 0,0 l/m 2 min 0 min 1190 W/m 12,9 km/h (3 Bft) 95,74 %
20.06.2022 14:12 20,8 C 23,9 C 18,9 C 59 % 1016,5 hPa 0,0 l/m 2 min 0 min 1180 W/m 25,7 km/h (4 Bft) 95,65 %
20.06.2022 14:14 21,1 C 23,9 C 18,9 C 58 % 1016,5 hPa 0,0 l/m 2 min 0 min 1163 W/m 12,9 km/h (3 Bft) 95,74 %
20.06.2022 14:16 21,2 C 23,9 C 18,9 C 58 % 1016,4 hPa 0,0 l/m 2 min 0 min 1031 W/m 12,9 km/h (3 Bft) 95,74 %
20.06.2022 14:18 21,3 C 23,9 C 18,9 C 58 % 1016,4 hPa 0,0 l/m 2 min 0 min 997 W/m 19,3 km/h (3 Bft) 93,62 %
20.06.2022 14:20 21,4 C 24,4 C 18,9 C 58 % 1016,4 hPa 0,0 l/m 2 min 0 min 1116 W/m 12,9 km/h (3 Bft) 95,74 %
20.06.2022 14:22 21,4 C 23,9 C 18,9 C 57 % 1016,4 hPa 0,0 l/m 2 min 0 min 1067 W/m 22,5 km/h (4 Bft) 95,65 %
20.06.2022 14:24 21,3 C 23,3 C 18,3 C 57 % 1016,4 hPa 0,0 l/m 2 min 0 min 816 W/m 6,4 km/h (2 Bft) 95,74 %
20.06.2022 14:26 21,1 C 22,8 C 18,3 C 57 % 1016,4 hPa 0,0 l/m 2 min 0 min 494 W/m 16,1 km/h (3 Bft) 93,62 %
20.06.2022 14:28 21,1 C 22,2 C 17,8 C 57 % 1016,4 hPa 0,0 l/m 2 min 0 min 494 W/m 25,7 km/h (4 Bft) 95,74 %
20.06.2022 14:30 21,0 C 22,8 C 17,8 C 57 % 1016,4 hPa 0,0 l/m 2 min 0 min 752 W/m 12,9 km/h (3 Bft) 95,74 %
20.06.2022 14:32 21,1 C 22,8 C 18,3 C 57 % 1016,4 hPa 0,0 l/m 2 min 0 min 882 W/m 12,9 km/h (3 Bft) 95,74 %
20.06.2022 14:34 21,1 C 23,3 C 18,3 C 57 % 1016,4 hPa 0,0 l/m 2 min 0 min 768 W/m 22,5 km/h (4 Bft) 93,62 %
20.06.2022 14:36 21,2 C 24,4 C 18,3 C 57 % 1016,4 hPa 0,0 l/m 2 min 0 min 1040 W/m 16,1 km/h (3 Bft) 96,55 %
20.06.2022 14:38 21,2 C 23,3 C 17,8 C 57 % 1016,3 hPa 0,0 l/m 2 min 0 min 885 W/m 19,3 km/h (3 Bft) 97,14 %
20.06.2022 14:40 21,1 C 23,3 C 17,8 C 57 % 1016,3 hPa 0,0 l/m 2 min 0 min 480 W/m 9,7 km/h (2 Bft) 97,87 %
20.06.2022 14:42 21,1 C 22,8 C 17,2 C 58 % 1016,3 hPa 0,0 l/m 2 min 0 min 665 W/m 12,9 km/h (3 Bft) 93,62 %
20.06.2022 14:44 21,1 C 23,3 C 17,2 C 58 % 1016,4 hPa 0,0 l/m 2 min 0 min 777 W/m 19,3 km/h (3 Bft) 97,87 %
20.06.2022 14:46 21,1 C 23,9 C 17,8 C 57 % 1016,3 hPa 0,0 l/m 2 min 0 min 1097 W/m 22,5 km/h (4 Bft) 100,00 %
20.06.2022 14:48 21,3 C 24,4 C 18,3 C 57 % 1016,4 hPa 0,0 l/m 2 min 0 min 1085 W/m 9,7 km/h (2 Bft) 97,87 %
20.06.2022 14:50 21,4 C 24,4 C 18,3 C 56 % 1016,4 hPa 0,0 l/m 2 min 0 min 1110 W/m 9,7 km/h (2 Bft) 97,87 %
20.06.2022 14:52 21,4 C 23,9 C 17,8 C 56 % 1016,3 hPa 0,0 l/m 2 min 0 min 1140 W/m 9,7 km/h (2 Bft) 95,74 %
20.06.2022 14:54 21,4 C 23,9 C 18,3 C 57 % 1016,3 hPa 0,0 l/m 2 min 0 min 1115 W/m 16,1 km/h (3 Bft) 100,00 %
20.06.2022 14:56 21,4 C 22,8 C 18,3 C 55 % 1016,3 hPa 0,0 l/m 0 min 0 min 434 W/m 9,7 km/h (2 Bft) 100,00 %
20.06.2022 14:58 21,3 C 22,8 C 18,3 C 55 % 1016,3 hPa 0,0 l/m 0 min 0 min 344 W/m 9,7 km/h (2 Bft) 100,00 %
20.06.2022 15:00 21,3 C 22,2 C 18,3 C 57 % 1016,4 hPa 0,0 l/m 0 min 0 min 299 W/m 12,9 km/h (3 Bft) 100,00 %
20.06.2022 15:02 21,2 C 21,7 C 17,8 C 56 % 1016,4 hPa 0,0 l/m 0 min 0 min 296 W/m 12,9 km/h (3 Bft) 100,00 %
20.06.2022 15:04 21,1 C 21,1 C 17,8 C 56 % 1016,4 hPa 0,0 l/m 0 min 0 min 296 W/m 16,1 km/h (3 Bft) 100,00 %
20.06.2022 15:06 20,9 C 21,1 C 17,2 C 56 % 1016,5 hPa 0,0 l/m 0 min 0 min 323 W/m 19,3 km/h (3 Bft) 100,00 %
20.06.2022 15:08 20,9 C 22,2 C 17,8 C 57 % 1016,4 hPa 0,0 l/m 2 min 0 min 858 W/m 12,9 km/h (3 Bft) 97,87 %
20.06.2022 15:10 21,0 C 23,3 C 17,8 C 58 % 1016,4 hPa 0,0 l/m 2 min 0 min 827 W/m 16,1 km/h (3 Bft) 100,00 %
20.06.2022 15:12 21,1 C 23,9 C 18,3 C 56 % 1016,4 hPa 0,0 l/m 2 min 0 min 825 W/m 16,1 km/h (3 Bft) 100,00 %
20.06.2022 15:14 21,2 C 23,9 C 18,3 C 57 % 1016,3 hPa 0,0 l/m 2 min 0 min 823 W/m 16,1 km/h (3 Bft) 100,00 %
20.06.2022 15:16 21,4 C 25,0 C 18,3 C 56 % 1016,3 hPa 0,0 l/m 2 min 0 min 1072 W/m 19,3 km/h (3 Bft) 100,00 %
20.06.2022 15:18 21,7 C 25,0 C 18,9 C 56 % 1016,3 hPa 0,0 l/m 2 min 0 min 1046 W/m 12,9 km/h (3 Bft) 100,00 %
20.06.2022 15:20 21,9 C 25,0 C 18,9 C 56 % 1016,3 hPa 0,0 l/m 2 min 0 min 1051 W/m 12,9 km/h (3 Bft) 100,00 %
20.06.2022 15:22 21,9 C 23,3 C 18,3 C 54 % 1016,3 hPa 0,0 l/m 0 min 0 min 387 W/m 16,1 km/h (3 Bft) 100,00 %
20.06.2022 15:24 21,8 C 22,8 C 17,8 C 54 % 1016,4 hPa 0,0 l/m 0 min 0 min 253 W/m 12,9 km/h (3 Bft) 95,74 %
20.06.2022 15:26 21,7 C 21,7 C 17,8 C 54 % 1016,4 hPa 0,0 l/m 0 min 0 min 263 W/m 22,5 km/h (4 Bft) 100,00 %
20.06.2022 15:28 21,6 C 22,8 C 17,8 C 55 % 1016,4 hPa 0,0 l/m 0 min 0 min 285 W/m 12,9 km/h (3 Bft) 100,00 %
20.06.2022 15:30 21,6 C 23,3 C 17,8 C 56 % 1016,4 hPa 0,0 l/m 2 min 0 min 998 W/m 9,7 km/h (2 Bft) 100,00 %
20.06.2022 15:32 21,7 C 24,4 C 17,8 C 56 % 1016,3 hPa 0,0 l/m 2 min 0 min 985 W/m 6,4 km/h (2 Bft) 100,00 %
20.06.2022 15:34 21,8 C 24,4 C 18,3 C 54 % 1016,4 hPa 0,0 l/m 2 min 0 min 976 W/m 16,1 km/h (3 Bft) 97,83 %
20.06.2022 15:36 21,9 C 24,4 C 18,3 C 55 % 1016,3 hPa 0,0 l/m 2 min 0 min 954 W/m 9,7 km/h (2 Bft) 100,00 %
20.06.2022 15:38 22,0 C 24,4 C 18,3 C 55 % 1016,3 hPa 0,0 l/m 2 min 0 min 968 W/m 19,3 km/h (3 Bft) 97,14 %
20.06.2022 15:40 22,1 C 25,0 C 18,3 C 54 % 1016,4 hPa 0,0 l/m 2 min 0 min 956 W/m 22,5 km/h (4 Bft) 97,87 %
20.06.2022 15:42 22,2 C 25,0 C 18,3 C 54 % 1016,4 hPa 0,0 l/m 2 min 0 min 938 W/m 22,5 km/h (4 Bft) 97,87 %
20.06.2022 15:44 22,2 C 25,0 C 18,3 C 55 % 1016,4 hPa 0,0 l/m 2 min 0 min 943 W/m 16,1 km/h (3 Bft) 95,74 %
20.06.2022 15:46 22,3 C 25,6 C 18,9 C 55 % 1016,3 hPa 0,0 l/m 2 min 0 min 965 W/m 12,9 km/h (3 Bft) 97,83 %
20.06.2022 15:48 22,4 C 25,0 C 18,9 C 55 % 1016,4 hPa 0,0 l/m 2 min 0 min 981 W/m 12,9 km/h (3 Bft) 97,87 %
20.06.2022 15:50 22,3 C 24,4 C 18,9 C 53 % 1016,3 hPa 0,0 l/m 2 min 0 min 910 W/m 25,7 km/h (4 Bft) 97,87 %
20.06.2022 15:52 22,3 C 25,0 C 18,9 C 53 % 1016,3 hPa 0,0 l/m 2 min 0 min 937 W/m 16,1 km/h (3 Bft) 97,87 %
20.06.2022 15:54 22,3 C 24,4 C 18,9 C 53 % 1016,4 hPa 0,0 l/m 2 min 0 min 939 W/m 16,1 km/h (3 Bft) 97,87 %
20.06.2022 15:56 22,2 C 23,3 C 18,3 C 53 % 1016,3 hPa 0,0 l/m 2 min 0 min 687 W/m 16,1 km/h (3 Bft) 97,87 %
20.06.2022 15:58 22,1 C 22,8 C 17,8 C 53 % 1016,4 hPa 0,0 l/m 0 min 0 min 193 W/m 22,5 km/h (4 Bft) 95,65 %
20.06.2022 16:00 21,8 C 22,2 C 17,8 C 52 % 1016,4 hPa 0,0 l/m 0 min 0 min 238 W/m 9,7 km/h (2 Bft) 97,87 %
20.06.2022 16:02 21,7 C 22,2 C 17,8 C 54 % 1016,4 hPa 0,0 l/m 0 min 0 min 245 W/m 16,1 km/h (3 Bft) 97,87 %
20.06.2022 16:04 21,6 C 22,2 C 17,8 C 55 % 1016,4 hPa 0,0 l/m 0 min 0 min 253 W/m 3,2 km/h (1 Bft) 97,92 %
20.06.2022 16:06 21,6 C 24,4 C 17,8 C 54 % 1016,4 hPa 0,0 l/m 2 min 0 min 406 W/m 19,3 km/h (3 Bft) 97,87 %
20.06.2022 16:08 21,7 C 24,4 C 17,8 C 53 % 1016,4 hPa 0,0 l/m 2 min 0 min 993 W/m 16,1 km/h (3 Bft) 97,87 %
20.06.2022 16:10 21,7 C 23,3 C 17,8 C 54 % 1016,4 hPa 0,0 l/m 0 min 0 min 274 W/m 12,9 km/h (3 Bft) 97,83 %
20.06.2022 16:12 21,8 C 22,8 C 17,8 C 54 % 1016,4 hPa 0,0 l/m 0 min 0 min 212 W/m 12,9 km/h (3 Bft) 100,00 %
20.06.2022 16:14 21,8 C 23,9 C 17,8 C 54 % 1016,4 hPa 0,0 l/m 0 min 0 min 243 W/m 19,3 km/h (3 Bft) 100,00 %
20.06.2022 16:16 21,8 C 25,0 C 18,3 C 55 % 1016,4 hPa 0,0 l/m 0 min 0 min 243 W/m 12,9 km/h (3 Bft) 100,00 %
20.06.2022 16:18 21,9 C 25,0 C 18,3 C 55 % 1016,4 hPa 0,0 l/m 0 min 0 min 243 W/m 19,3 km/h (3 Bft) 100,00 %
20.06.2022 16:20 21,9 C 25,0 C 17,8 C 55 % 1016,4 hPa 0,0 l/m 0 min 0 min 243 W/m 19,3 km/h (3 Bft) 100,00 %
20.06.2022 16:22 21,9 C 25,0 C 17,8 C 54 % 1016,4 hPa 0,0 l/m 0 min 0 min 243 W/m 19,3 km/h (3 Bft) 100,00 %
20.06.2022 16:24 21,9 C 25,6 C 18,3 C 54 % 1016,4 hPa 0,0 l/m 0 min 0 min 243 W/m 12,9 km/h (3 Bft) 97,87 %
20.06.2022 16:26 22,0 C 26,1 C 18,3 C 55 % 1016,4 hPa 0,0 l/m 2 min 0 min 707 W/m 16,1 km/h (3 Bft) 97,87 %
20.06.2022 16:28 22,1 C 26,7 C 18,3 C 54 % 1016,4 hPa 0,0 l/m 2 min 0 min 798 W/m 22,5 km/h (4 Bft) 97,87 %
20.06.2022 16:30 22,1 C 27,8 C 18,3 C 55 % 1016,4 hPa 0,0 l/m 2 min 0 min 791 W/m 19,3 km/h (3 Bft) 97,87 %
20.06.2022 16:32 22,2 C 27,2 C 18,3 C 54 % 1016,4 hPa 0,0 l/m 2 min 0 min 789 W/m 12,9 km/h (3 Bft) 97,87 %
20.06.2022 16:34 22,3 C 26,7 C 18,9 C 53 % 1016,4 hPa 0,0 l/m 2 min 0 min 790 W/m 22,5 km/h (4 Bft) 97,83 %
20.06.2022 16:36 22,4 C 27,2 C 18,9 C 54 % 1016,5 hPa 0,0 l/m 2 min 0 min 797 W/m 19,3 km/h (3 Bft) 97,87 %
20.06.2022 16:38 22,4 C 27,2 C 18,9 C 53 % 1016,5 hPa 0,0 l/m 2 min 0 min 823 W/m 19,3 km/h (3 Bft) 95,74 %
20.06.2022 16:40 22,5 C 27,2 C 18,9 C 52 % 1016,4 hPa 0,0 l/m 2 min 0 min 842 W/m 19,3 km/h (3 Bft) 97,87 %
20.06.2022 16:42 22,6 C 27,2 C 18,9 C 52 % 1016,4 hPa 0,0 l/m 2 min 0 min 863 W/m 16,1 km/h (3 Bft) 97,87 %
20.06.2022 16:44 22,6 C 27,2 C 18,9 C 53 % 1016,3 hPa 0,0 l/m 2 min 0 min 870 W/m 16,1 km/h (3 Bft) 97,83 %
20.06.2022 16:46 22,7 C 27,2 C 18,9 C 53 % 1016,4 hPa 0,0 l/m 2 min 0 min 862 W/m 19,3 km/h (3 Bft) 95,74 %
20.06.2022 16:48 22,7 C 27,2 C 19,4 C 52 % 1016,4 hPa 0,0 l/m 2 min 0 min 828 W/m 35,4 km/h (5 Bft) 93,62 %
20.06.2022 16:50 22,7 C 27,2 C 18,9 C 52 % 1016,4 hPa 0,0 l/m 2 min 0 min 796 W/m 22,5 km/h (4 Bft) 95,74 %
20.06.2022 16:52 22,7 C 26,7 C 18,9 C 52 % 1016,4 hPa 0,0 l/m 2 min 0 min 764 W/m 29,0 km/h (5 Bft) 97,87 %
20.06.2022 16:54 22,7 C 27,2 C 18,9 C 52 % 1016,4 hPa 0,0 l/m 2 min 0 min 754 W/m 22,5 km/h (4 Bft) 95,74 %
20.06.2022 16:56 22,7 C 27,2 C 18,9 C 52 % 1016,4 hPa 0,0 l/m 2 min 0 min 739 W/m 16,1 km/h (3 Bft) 97,87 %
20.06.2022 16:58 22,7 C 27,2 C 18,9 C 51 % 1016,3 hPa 0,0 l/m 2 min 0 min 743 W/m 9,7 km/h (2 Bft) 95,65 %
20.06.2022 17:00 22,7 C 27,2 C 18,9 C 51 % 1016,3 hPa 0,0 l/m 2 min 0 min 762 W/m 19,3 km/h (3 Bft) 97,87 %
20.06.2022 17:02 22,7 C 27,8 C 19,4 C 52 % 1016,3 hPa 0,0 l/m 2 min 0 min 796 W/m 19,3 km/h (3 Bft) 97,87 %
20.06.2022 17:04 22,8 C 27,8 C 19,4 C 51 % 1016,3 hPa 0,0 l/m 2 min 0 min 836 W/m 19,3 km/h (3 Bft) 97,87 %
20.06.2022 17:06 22,8 C 27,8 C 19,4 C 51 % 1016,3 hPa 0,0 l/m 2 min 0 min 822 W/m 22,5 km/h (4 Bft) 95,74 %
20.06.2022 17:08 22,8 C 27,8 C 19,4 C 53 % 1016,3 hPa 0,0 l/m 2 min 0 min 768 W/m 16,1 km/h (3 Bft) 95,74 %
20.06.2022 17:10 22,8 C 27,8 C 20,0 C 51 % 1016,3 hPa 0,0 l/m 2 min 0 min 732 W/m 22,5 km/h (4 Bft) 100,00 %
20.06.2022 17:12 22,8 C 27,8 C 20,0 C 50 % 1016,3 hPa 0,0 l/m 2 min 0 min 736 W/m 25,7 km/h (4 Bft) 100,00 %
20.06.2022 17:14 22,8 C 27,2 C 19,4 C 50 % 1016,3 hPa 0,0 l/m 2 min 0 min 720 W/m 29,0 km/h (5 Bft) 95,74 %
20.06.2022 17:16 22,8 C 26,7 C 19,4 C 50 % 1016,3 hPa 0,0 l/m 2 min 0 min 716 W/m 22,5 km/h (4 Bft) 97,87 %
20.06.2022 17:18 22,7 C 27,2 C 19,4 C 51 % 1016,4 hPa 0,0 l/m 2 min 0 min 736 W/m 25,7 km/h (4 Bft) 95,74 %
20.06.2022 17:20 22,8 C 26,1 C 19,4 C 51 % 1016,4 hPa 0,0 l/m 2 min 0 min 501 W/m 19,3 km/h (3 Bft) 97,87 %
20.06.2022 17:22 22,7 C 25,6 C 18,9 C 50 % 1016,4 hPa 0,0 l/m 0 min 0 min 213 W/m 19,3 km/h (3 Bft) 95,65 %
20.06.2022 17:24 22,7 C 26,7 C 18,9 C 51 % 1016,3 hPa 0,0 l/m 2 min 0 min 400 W/m 6,4 km/h (2 Bft) 95,74 %
20.06.2022 17:26 22,7 C 26,1 C 18,9 C 51 % 1016,4 hPa 0,0 l/m 2 min 0 min 717 W/m 6,4 km/h (2 Bft) 97,87 %
20.06.2022 17:28 22,7 C 26,7 C 18,9 C 51 % 1016,3 hPa 0,0 l/m 2 min 0 min 681 W/m 12,9 km/h (3 Bft) 97,87 %
20.06.2022 17:30 22,8 C 27,2 C 19,4 C 51 % 1016,3 hPa 0,0 l/m 2 min 0 min 758 W/m 16,1 km/h (3 Bft) 97,87 %
20.06.2022 17:32 22,8 C 27,2 C 19,4 C 50 % 1016,3 hPa 0,0 l/m 2 min 0 min 742 W/m 19,3 km/h (3 Bft) 95,74 %
20.06.2022 17:34 22,8 C 27,2 C 19,4 C 50 % 1016,4 hPa 0,0 l/m 2 min 0 min 736 W/m 22,5 km/h (4 Bft) 97,83 %
20.06.2022 17:36 22,8 C 27,8 C 20,0 C 52 % 1016,3 hPa 0,0 l/m 2 min 0 min 720 W/m 19,3 km/h (3 Bft) 95,74 %
20.06.2022 17:38 22,9 C 28,3 C 20,0 C 52 % 1016,4 hPa 0,0 l/m 2 min 0 min 695 W/m 19,3 km/h (3 Bft) 97,87 %
20.06.2022 17:40 22,9 C 28,3 C 20,0 C 51 % 1016,4 hPa 0,0 l/m 2 min 0 min 683 W/m 25,7 km/h (4 Bft) 97,87 %
20.06.2022 17:42 22,9 C 27,8 C 20,0 C 50 % 1016,4 hPa 0,0 l/m 2 min 0 min 662 W/m 22,5 km/h (4 Bft) 93,62 %
20.06.2022 17:44 22,9 C 26,1 C 19,4 C 51 % 1016,5 hPa 0,0 l/m 2 min 0 min 628 W/m 12,9 km/h (3 Bft) 95,65 %
20.06.2022 17:46 22,8 C 25,6 C 18,9 C 51 % 1016,5 hPa 0,0 l/m 0 min 0 min 144 W/m 16,1 km/h (3 Bft) 95,74 %
20.06.2022 17:48 22,7 C 25,6 C 18,9 C 52 % 1016,5 hPa 0,0 l/m 2 min 0 min 535 W/m 25,7 km/h (4 Bft) 93,62 %
20.06.2022 17:50 22,6 C 26,1 C 18,9 C 51 % 1016,4 hPa 0,0 l/m 2 min 0 min 625 W/m 16,1 km/h (3 Bft) 93,62 %
20.06.2022 17:52 22,5 C 26,1 C 18,9 C 52 % 1016,4 hPa 0,0 l/m 2 min 0 min 592 W/m 19,3 km/h (3 Bft) 93,62 %
20.06.2022 17:54 22,4 C 26,1 C 18,9 C 51 % 1016,4 hPa 0,0 l/m 2 min 0 min 587 W/m 16,1 km/h (3 Bft) 95,74 %
20.06.2022 17:56 22,4 C 26,7 C 18,9 C 52 % 1016,4 hPa 0,0 l/m 2 min 0 min 562 W/m 12,9 km/h (3 Bft) 95,65 %
20.06.2022 17:58 22,4 C 27,2 C 19,4 C 52 % 1016,4 hPa 0,0 l/m 2 min 0 min 565 W/m 19,3 km/h (3 Bft) 93,62 %
20.06.2022 18:00 22,4 C 27,8 C 19,4 C 52 % 1016,4 hPa 0,0 l/m 2 min 0 min 572 W/m 22,5 km/h (4 Bft) 95,74 %
20.06.2022 18:02 22,4 C 27,8 C 18,9 C 52 % 1016,4 hPa 0,0 l/m 2 min 0 min 556 W/m 6,4 km/h (2 Bft) 95,74 %
20.06.2022 18:04 22,6 C 27,8 C 19,4 C 53 % 1016,4 hPa 0,0 l/m 2 min 0 min 580 W/m 9,7 km/h (2 Bft) 95,74 %
20.06.2022 18:07 22,6 C 27,2 C 18,9 C 51 % 1016,3 hPa 0,0 l/m 3 min 0 min 572 W/m 19,3 km/h (3 Bft) 92,86 %
20.06.2022 18:10 22,6 C 27,8 C 19,4 C 51 % 1016,3 hPa 0,0 l/m 3 min 0 min 558 W/m 12,9 km/h (3 Bft) 98,57 %
20.06.2022 18:12 22,6 C 28,3 C 19,4 C 51 % 1016,3 hPa 0,0 l/m 2 min 0 min 541 W/m 9,7 km/h (2 Bft) 95,74 %
20.06.2022 18:14 22,7 C 28,3 C 20,0 C 52 % 1016,4 hPa 0,0 l/m 2 min 0 min 527 W/m 16,1 km/h (3 Bft) 97,87 %
20.06.2022 18:16 22,8 C 28,3 C 19,4 C 51 % 1016,3 hPa 0,0 l/m 2 min 0 min 513 W/m 19,3 km/h (3 Bft) 100,00 %
20.06.2022 18:18 22,8 C 27,8 C 19,4 C 51 % 1016,3 hPa 0,0 l/m 2 min 0 min 505 W/m 6,4 km/h (2 Bft) 100,00 %
20.06.2022 18:20 22,7 C 27,2 C 18,9 C 51 % 1016,4 hPa 0,0 l/m 2 min 0 min 499 W/m 16,1 km/h (3 Bft) 100,00 %
20.06.2022 18:22 22,6 C 26,7 C 18,9 C 51 % 1016,4 hPa 0,0 l/m 2 min 0 min 495 W/m 16,1 km/h (3 Bft) 100,00 %
20.06.2022 18:24 22,5 C 26,7 C 18,9 C 50 % 1016,2 hPa 0,0 l/m 2 min 0 min 492 W/m 19,3 km/h (3 Bft) 100,00 %
20.06.2022 18:27 22,4 C 27,2 C 18,9 C 51 % 1016,4 hPa 0,0 l/m 3 min 0 min 484 W/m 22,5 km/h (4 Bft) 100,00 %
20.06.2022 18:28 22,4 C 26,7 C 18,9 C 51 % 1016,4 hPa 0,0 l/m 1 min 0 min 478 W/m 12,9 km/h (3 Bft) 100,00 %
20.06.2022 18:30 22,3 C 27,2 C 18,9 C 51 % 1016,3 hPa 0,0 l/m 2 min 0 min 468 W/m 9,7 km/h (2 Bft) 100,00 %
20.06.2022 18:32 22,4 C 27,2 C 18,9 C 51 % 1016,3 hPa 0,0 l/m 2 min 0 min 466 W/m 25,7 km/h (4 Bft) 100,00 %
20.06.2022 18:34 22,4 C 27,2 C 19,4 C 52 % 1016,4 hPa 0,0 l/m 2 min 0 min 465 W/m 22,5 km/h (4 Bft) 97,87 %
20.06.2022 18:36 22,4 C 27,8 C 19,4 C 53 % 1016,3 hPa 0,0 l/m 2 min 0 min 454 W/m 16,1 km/h (3 Bft) 100,00 %
20.06.2022 18:38 22,4 C 27,2 C 19,4 C 53 % 1016,4 hPa 0,0 l/m 2 min 0 min 444 W/m 12,9 km/h (3 Bft) 100,00 %
20.06.2022 18:40 22,4 C 27,2 C 19,4 C 52 % 1016,4 hPa 0,0 l/m 2 min 0 min 443 W/m 16,1 km/h (3 Bft) 100,00 %
20.06.2022 18:42 22,4 C 27,2 C 19,4 C 52 % 1016,4 hPa 0,0 l/m 2 min 0 min 433 W/m 19,3 km/h (3 Bft) 97,87 %
20.06.2022 18:44 22,5 C 27,2 C 18,9 C 53 % 1016,4 hPa 0,0 l/m 2 min 0 min 432 W/m 9,7 km/h (2 Bft) 100,00 %
20.06.2022 18:46 22,4 C 26,7 C 18,9 C 52 % 1016,5 hPa 0,0 l/m 2 min 0 min 425 W/m 16,1 km/h (3 Bft) 100,00 %
20.06.2022 18:48 22,4 C 26,7 C 18,9 C 52 % 1016,5 hPa 0,0 l/m 2 min 0 min 423 W/m 29,0 km/h (5 Bft) 100,00 %
20.06.2022 18:50 22,3 C 26,1 C 18,9 C 52 % 1016,5 hPa 0,0 l/m 2 min 0 min 380 W/m 22,5 km/h (4 Bft) 100,00 %
20.06.2022 18:52 22,1 C 24,4 C 18,3 C 53 % 1016,5 hPa 0,0 l/m 2 min 0 min 235 W/m 19,3 km/h (3 Bft) 100,00 %
20.06.2022 18:54 21,9 C 25,0 C 18,3 C 53 % 1016,5 hPa 0,0 l/m 2 min 0 min 249 W/m 16,1 km/h (3 Bft) 100,00 %
20.06.2022 18:56 21,8 C 25,6 C 18,3 C 53 % 1016,5 hPa 0,0 l/m 2 min 0 min 367 W/m 12,9 km/h (3 Bft) 97,83 %
20.06.2022 18:58 21,7 C 25,6 C 18,3 C 54 % 1016,5 hPa 0,0 l/m 2 min 0 min 391 W/m 12,9 km/h (3 Bft) 97,87 %
20.06.2022 19:00 21,7 C 24,4 C 18,3 C 53 % 1016,5 hPa 0,0 l/m 2 min 0 min 382 W/m 25,7 km/h (4 Bft) 97,87 %
20.06.2022 19:02 21,6 C 23,3 C 18,3 C 55 % 1016,5 hPa 0,0 l/m 2 min 0 min 318 W/m 9,7 km/h (2 Bft) 97,87 %
20.06.2022 19:04 21,4 C 23,3 C 17,8 C 54 % 1016,5 hPa 0,0 l/m 0 min 0 min 81 W/m 12,9 km/h (3 Bft) 97,87 %
20.06.2022 19:06 21,3 C 23,3 C 17,8 C 55 % 1016,5 hPa 0,0 l/m 2 min 0 min 358 W/m 19,3 km/h (3 Bft) 97,87 %
20.06.2022 19:08 21,2 C 22,8 C 17,8 C 54 % 1016,5 hPa 0,0 l/m 2 min 0 min 364 W/m 9,7 km/h (2 Bft) 97,83 %
20.06.2022 19:10 21,2 C 22,8 C 18,3 C 55 % 1016,4 hPa 0,0 l/m 2 min 0 min 355 W/m 12,9 km/h (3 Bft) 97,87 %
20.06.2022 19:12 21,3 C 22,8 C 18,3 C 55 % 1016,5 hPa 0,0 l/m 2 min 0 min 348 W/m 22,5 km/h (4 Bft) 97,87 %
20.06.2022 19:14 21,3 C 22,2 C 18,3 C 55 % 1016,5 hPa 0,0 l/m 2 min 0 min 341 W/m 9,7 km/h (2 Bft) 95,74 %
20.06.2022 19:16 21,3 C 22,2 C 17,8 C 55 % 1016,5 hPa 0,0 l/m 2 min 0 min 336 W/m 12,9 km/h (3 Bft) 97,87 %
20.06.2022 19:18 21,4 C 22,2 C 17,8 C 56 % 1016,5 hPa 0,0 l/m 2 min 0 min 324 W/m 19,3 km/h (3 Bft) 95,74 %
20.06.2022 19:20 21,3 C 22,2 C 17,8 C 55 % 1016,5 hPa 0,0 l/m 2 min 0 min 321 W/m 19,3 km/h (3 Bft) 97,83 %
20.06.2022 19:22 21,3 C 21,7 C 17,2 C 55 % 1016,5 hPa 0,0 l/m 2 min 0 min 315 W/m 12,9 km/h (3 Bft) 97,87 %
20.06.2022 19:24 21,2 C 21,7 C 17,2 C 55 % 1016,5 hPa 0,0 l/m 2 min 0 min 311 W/m 22,5 km/h (4 Bft) 97,87 %
20.06.2022 19:26 21,2 C 21,1 C 17,2 C 54 % 1016,4 hPa 0,0 l/m 2 min 0 min 305 W/m 16,1 km/h (3 Bft) 97,87 %
20.06.2022 19:28 21,1 C 21,1 C 17,2 C 55 % 1016,5 hPa 0,0 l/m 2 min 0 min 297 W/m 16,1 km/h (3 Bft) 97,87 %
20.06.2022 19:30 21,0 C 21,1 C 17,2 C 55 % 1016,5 hPa 0,0 l/m 2 min 0 min 288 W/m 19,3 km/h (3 Bft) 95,74 %
20.06.2022 19:32 20,9 C 21,1 C 16,7 C 54 % 1016,5 hPa 0,0 l/m 2 min 0 min 284 W/m 16,1 km/h (3 Bft) 95,65 %
20.06.2022 19:34 20,8 C 20,6 C 16,7 C 54 % 1016,5 hPa 0,0 l/m 2 min 0 min 278 W/m 22,5 km/h (4 Bft) 97,87 %
20.06.2022 19:36 20,8 C 20,6 C 16,7 C 54 % 1016,5 hPa 0,0 l/m 2 min 0 min 274 W/m 9,7 km/h (2 Bft) 93,62 %
20.06.2022 19:38 20,7 C 20,6 C 16,7 C 55 % 1016,5 hPa 0,0 l/m 2 min 0 min 267 W/m 16,1 km/h (3 Bft) 93,62 %
20.06.2022 19:40 20,7 C 20,0 C 16,7 C 55 % 1016,5 hPa 0,0 l/m 2 min 0 min 259 W/m 9,7 km/h (2 Bft) 100,00 %
20.06.2022 19:42 20,6 C 20,6 C 16,7 C 56 % 1016,6 hPa 0,0 l/m 2 min 0 min 251 W/m 19,3 km/h (3 Bft) 97,87 %
20.06.2022 19:44 20,6 C 20,6 C 16,1 C 56 % 1016,6 hPa 0,0 l/m 2 min 0 min 244 W/m 9,7 km/h (2 Bft) 100,00 %
20.06.2022 19:46 20,6 C 20,0 C 16,1 C 56 % 1016,6 hPa 0,0 l/m 2 min 0 min 238 W/m 9,7 km/h (2 Bft) 100,00 %
20.06.2022 19:48 20,5 C 20,0 C 16,1 C 56 % 1016,5 hPa 0,0 l/m 2 min 0 min 231 W/m 19,3 km/h (3 Bft) 95,74 %
20.06.2022 19:50 20,4 C 20,0 C 16,1 C 56 % 1016,5 hPa 0,0 l/m 2 min 0 min 224 W/m 16,1 km/h (3 Bft) 97,87 %
20.06.2022 19:52 20,4 C 20,0 C 16,1 C 57 % 1016,5 hPa 0,0 l/m 2 min 0 min 216 W/m 16,1 km/h (3 Bft) 97,87 %
20.06.2022 19:54 20,3 C 20,0 C 16,1 C 57 % 1016,5 hPa 0,0 l/m 2 min 0 min 208 W/m 16,1 km/h (3 Bft) 97,87 %
20.06.2022 19:56 20,3 C 20,0 C 16,1 C 57 % 1016,5 hPa 0,0 l/m 2 min 0 min 199 W/m 22,5 km/h (4 Bft) 97,83 %
20.06.2022 19:58 20,2 C 20,0 C 16,1 C 58 % 1016,6 hPa 0,0 l/m 2 min 0 min 191 W/m 9,7 km/h (2 Bft) 97,87 %
20.06.2022 20:00 20,2 C 19,4 C 16,1 C 57 % 1016,6 hPa 0,0 l/m 2 min 0 min 181 W/m 12,9 km/h (3 Bft) 97,87 %
20.06.2022 20:02 20,2 C 19,4 C 16,1 C 58 % 1016,7 hPa 0,0 l/m 2 min 0 min 130 W/m 12,9 km/h (3 Bft) 97,87 %
20.06.2022 20:04 20,2 C 19,4 C 16,1 C 57 % 1016,7 hPa 0,0 l/m 0 min 0 min 67 W/m 19,3 km/h (3 Bft) 95,74 %
20.06.2022 20:06 20,1 C 19,4 C 16,1 C 57 % 1016,6 hPa 0,0 l/m 0 min 0 min 52 W/m 12,9 km/h (3 Bft) 97,87 %
20.06.2022 20:08 20,1 C 19,4 C 16,1 C 58 % 1016,6 hPa 0,0 l/m 0 min 0 min 49 W/m 22,5 km/h (4 Bft) 97,83 %
20.06.2022 20:10 20,1 C 19,4 C 16,1 C 58 % 1016,6 hPa 0,0 l/m 0 min 0 min 49 W/m 16,1 km/h (3 Bft) 97,87 %
20.06.2022 20:12 20,1 C 19,4 C 16,1 C 58 % 1016,6 hPa 0,0 l/m 0 min 0 min 48 W/m 12,9 km/h (3 Bft) 95,74 %
20.06.2022 20:14 20,0 C 19,4 C 16,1 C 59 % 1016,6 hPa 0,0 l/m 0 min 0 min 47 W/m 12,9 km/h (3 Bft) 97,87 %
20.06.2022 20:16 19,9 C 19,4 C 15,6 C 59 % 1016,6 hPa 0,0 l/m 0 min 0 min 46 W/m 19,3 km/h (3 Bft) 93,62 %
20.06.2022 20:18 19,9 C 19,4 C 15,6 C 59 % 1016,6 hPa 0,0 l/m 0 min 0 min 46 W/m 6,4 km/h (2 Bft) 97,87 %
20.06.2022 20:20 19,8 C 19,4 C 15,6 C 60 % 1016,6 hPa 0,0 l/m 0 min 0 min 44 W/m 9,7 km/h (2 Bft) 97,83 %
20.06.2022 20:22 19,8 C 18,9 C 15,6 C 59 % 1016,5 hPa 0,0 l/m 0 min 0 min 43 W/m 16,1 km/h (3 Bft) 95,74 %
20.06.2022 20:24 19,7 C 18,9 C 15,6 C 59 % 1016,5 hPa 0,0 l/m 0 min 0 min 42 W/m 12,9 km/h (3 Bft) 95,74 %
20.06.2022 20:26 19,7 C 18,9 C 15,6 C 59 % 1016,5 hPa 0,0 l/m 0 min 0 min 40 W/m 16,1 km/h (3 Bft) 97,87 %
20.06.2022 20:28 19,6 C 18,9 C 15,6 C 59 % 1016,5 hPa 0,0 l/m 0 min 0 min 39 W/m 12,9 km/h (3 Bft) 95,74 %
20.06.2022 20:30 19,6 C 18,9 C 15,6 C 59 % 1016,6 hPa 0,0 l/m 0 min 0 min 39 W/m 12,9 km/h (3 Bft) 97,87 %
20.06.2022 20:32 19,6 C 18,9 C 15,6 C 58 % 1016,6 hPa 0,0 l/m 0 min 0 min 37 W/m 12,9 km/h (3 Bft) 97,83 %
20.06.2022 20:34 19,5 C 18,9 C 15,6 C 58 % 1016,6 hPa 0,0 l/m 0 min 0 min 36 W/m 12,9 km/h (3 Bft) 97,87 %
20.06.2022 20:36 19,4 C 18,9 C 15,6 C 59 % 1016,6 hPa 0,0 l/m 0 min 0 min 35 W/m 16,1 km/h (3 Bft) 95,74 %
20.06.2022 20:38 19,4 C 18,9 C 15,0 C 59 % 1016,6 hPa 0,0 l/m 0 min 0 min 33 W/m 19,3 km/h (3 Bft) 97,87 %
20.06.2022 20:40 19,3 C 18,9 C 15,0 C 59 % 1016,6 hPa 0,0 l/m 0 min 0 min 33 W/m 9,7 km/h (2 Bft) 97,87 %
20.06.2022 20:42 19,3 C 18,9 C 15,0 C 59 % 1016,7 hPa 0,0 l/m 0 min 0 min 32 W/m 25,7 km/h (4 Bft) 97,87 %
20.06.2022 20:44 19,2 C 18,3 C 15,0 C 59 % 1016,7 hPa 0,0 l/m 0 min 0 min 31 W/m 9,7 km/h (2 Bft) 97,83 %
20.06.2022 20:46 19,2 C 18,3 C 15,0 C 60 % 1016,7 hPa 0,0 l/m 0 min 0 min 30 W/m 19,3 km/h (3 Bft) 97,87 %
20.06.2022 20:48 19,1 C 18,3 C 15,0 C 60 % 1016,7 hPa 0,0 l/m 0 min 0 min 28 W/m 9,7 km/h (2 Bft) 97,87 %
20.06.2022 20:50 19,1 C 18,3 C 15,0 C 61 % 1016,7 hPa 0,0 l/m 0 min 0 min 27 W/m 12,9 km/h (3 Bft) 97,87 %
20.06.2022 20:52 19,0 C 18,3 C 15,0 C 61 % 1016,6 hPa 0,0 l/m 0 min 0 min 26 W/m 12,9 km/h (3 Bft) 97,87 %
20.06.2022 20:54 18,9 C 18,3 C 14,4 C 61 % 1016,7 hPa 0,0 l/m 0 min 0 min 26 W/m 16,1 km/h (3 Bft) 97,87 %
20.06.2022 20:56 18,9 C 17,8 C 14,4 C 62 % 1016,7 hPa 0,0 l/m 0 min 0 min 25 W/m 9,7 km/h (2 Bft) 97,83 %
20.06.2022 20:58 18,8 C 17,8 C 14,4 C 62 % 1016,7 hPa 0,0 l/m 0 min 0 min 25 W/m 6,4 km/h (2 Bft) 97,87 %
20.06.2022 21:00 18,8 C 17,8 C 14,4 C 62 % 1016,7 hPa 0,0 l/m 0 min 0 min 23 W/m 9,7 km/h (2 Bft) 98,15 %
20.06.2022 21:02 18,8 C 17,8 C 14,4 C 62 % 1016,8 hPa 0,0 l/m 0 min 0 min 23 W/m 9,7 km/h (2 Bft) 95,74 %
20.06.2022 21:04 18,8 C 17,8 C 14,4 C 62 % 1016,7 hPa 0,0 l/m 0 min 0 min 22 W/m 12,9 km/h (3 Bft) 97,87 %
20.06.2022 21:06 18,7 C 17,8 C 14,4 C 62 % 1016,8 hPa 0,0 l/m 0 min 0 min 21 W/m 16,1 km/h (3 Bft) 97,83 %
20.06.2022 21:08 18,7 C 17,8 C 14,4 C 62 % 1016,7 hPa 0,0 l/m 0 min 0 min 20 W/m 16,1 km/h (3 Bft) 100,00 %
20.06.2022 21:10 18,7 C 17,8 C 14,4 C 62 % 1016,8 hPa 0,0 l/m 0 min 0 min 19 W/m 6,4 km/h (2 Bft) 100,00 %
20.06.2022 21:12 18,6 C 17,8 C 14,4 C 62 % 1016,8 hPa 0,0 l/m 0 min 0 min 19 W/m 9,7 km/h (2 Bft) 100,00 %
20.06.2022 21:14 18,6 C 17,8 C 14,4 C 63 % 1016,8 hPa 0,0 l/m 0 min 0 min 18 W/m 12,9 km/h (3 Bft) 100,00 %
20.06.2022 21:16 18,5 C 17,8 C 14,4 C 63 % 1016,7 hPa 0,0 l/m 0 min 0 min 18 W/m 16,1 km/h (3 Bft) 97,87 %
20.06.2022 21:18 18,4 C 17,8 C 14,4 C 63 % 1016,7 hPa 0,0 l/m 0 min 0 min 17 W/m 9,7 km/h (2 Bft) 100,00 %
20.06.2022 21:20 18,4 C 17,2 C 13,9 C 63 % 1016,7 hPa 0,0 l/m 0 min 0 min 16 W/m 9,7 km/h (2 Bft) 100,00 %
20.06.2022 21:22 18,3 C 17,2 C 13,9 C 63 % 1016,7 hPa 0,0 l/m 0 min 0 min 15 W/m 9,7 km/h (2 Bft) 100,00 %
20.06.2022 21:24 18,3 C 17,2 C 13,9 C 64 % 1016,7 hPa 0,0 l/m 0 min 0 min 14 W/m 6,4 km/h (2 Bft) 97,87 %
20.06.2022 21:26 18,3 C 17,2 C 13,9 C 64 % 1016,7 hPa 0,0 l/m 0 min 0 min 14 W/m 3,2 km/h (1 Bft) 100,00 %
20.06.2022 21:28 18,2 C 17,2 C 13,9 C 64 % 1016,7 hPa 0,0 l/m 0 min 0 min 12 W/m 6,4 km/h (2 Bft) 100,00 %
20.06.2022 21:30 18,2 C 17,2 C 13,9 C 64 % 1016,7 hPa 0,0 l/m 0 min 0 min 12 W/m 9,7 km/h (2 Bft) 97,83 %
20.06.2022 21:32 18,2 C 17,2 C 13,9 C 64 % 1016,7 hPa 0,0 l/m 0 min 0 min 12 W/m 19,3 km/h (3 Bft) 100,00 %
20.06.2022 21:34 18,2 C 17,2 C 13,9 C 64 % 1016,8 hPa 0,0 l/m 0 min 0 min 11 W/m 3,2 km/h (1 Bft) 97,87 %
20.06.2022 21:36 18,1 C 17,2 C 13,9 C 65 % 1016,8 hPa 0,0 l/m 0 min 0 min 11 W/m 6,4 km/h (2 Bft) 97,87 %
20.06.2022 21:38 18,1 C 17,2 C 13,9 C 65 % 1016,7 hPa 0,0 l/m 0 min 0 min 9 W/m 9,7 km/h (2 Bft) 97,87 %
20.06.2022 21:40 18,0 C 17,2 C 13,9 C 65 % 1016,8 hPa 0,0 l/m 0 min 0 min 8 W/m 6,4 km/h (2 Bft) 97,87 %
20.06.2022 21:42 17,9 C 17,2 C 13,9 C 65 % 1016,8 hPa 0,0 l/m 0 min 0 min 7 W/m 9,7 km/h (2 Bft) 95,65 %
20.06.2022 21:44 17,9 C 16,7 C 13,9 C 65 % 1016,9 hPa 0,0 l/m 0 min 0 min 6 W/m 3,2 km/h (1 Bft) 97,87 %
20.06.2022 21:46 17,9 C 16,7 C 13,9 C 65 % 1016,9 hPa 0,0 l/m 0 min 0 min 5 W/m 9,7 km/h (2 Bft) 93,62 %
20.06.2022 21:48 17,9 C 16,7 C 13,3 C 66 % 1016,9 hPa 0,0 l/m 0 min 0 min 5 W/m 6,4 km/h (2 Bft) 95,74 %
20.06.2022 21:50 17,8 C 16,7 C 13,3 C 66 % 1017,0 hPa 0,0 l/m 0 min 0 min 5 W/m 3,2 km/h (1 Bft) 95,74 %
20.06.2022 21:52 17,8 C 16,7 C 13,3 C 66 % 1017,0 hPa 0,0 l/m 0 min 0 min 0 W/m 6,4 km/h (2 Bft) 93,62 %
20.06.2022 21:54 17,7 C 16,7 C 13,3 C 66 % 1017,0 hPa 0,0 l/m 0 min 0 min 0 W/m 6,4 km/h (2 Bft) 95,65 %
20.06.2022 21:56 17,7 C 16,7 C 13,3 C 66 % 1017,0 hPa 0,0 l/m 0 min 0 min 0 W/m 3,2 km/h (1 Bft) 95,74 %
20.06.2022 21:58 17,6 C 16,7 C 13,3 C 66 % 1017,1 hPa 0,0 l/m 0 min 0 min 0 W/m 6,4 km/h (2 Bft) 95,74 %
20.06.2022 22:00 17,6 C 16,7 C 13,3 C 66 % 1017,2 hPa 0,0 l/m 0 min 0 min 0 W/m 3,2 km/h (1 Bft) 95,74 %
20.06.2022 22:02 17,6 C 16,7 C 13,3 C 66 % 1017,2 hPa 0,0 l/m 0 min 0 min 0 W/m 3,2 km/h (1 Bft) 95,74 %
20.06.2022 22:04 17,5 C 16,7 C 13,3 C 66 % 1017,2 hPa 0,0 l/m 0 min 0 min 0 W/m 3,2 km/h (1 Bft) 93,62 %
20.06.2022 22:06 17,4 C 16,7 C 13,3 C 67 % 1017,2 hPa 0,0 l/m 0 min 0 min 0 W/m 6,4 km/h (2 Bft) 95,65 %
20.06.2022 22:08 17,4 C 16,1 C 13,3 C 67 % 1017,2 hPa 0,0 l/m 0 min 0 min 0 W/m 3,2 km/h (1 Bft) 93,62 %
20.06.2022 22:10 17,4 C 16,1 C 13,3 C 67 % 1017,2 hPa 0,0 l/m 0 min 0 min 0 W/m 6,4 km/h (2 Bft) 95,74 %
20.06.2022 22:12 17,3 C 16,1 C 13,3 C 67 % 1017,2 hPa 0,0 l/m 0 min 0 min 0 W/m 3,2 km/h (1 Bft) 95,74 %
20.06.2022 22:14 17,3 C 16,1 C 12,8 C 68 % 1017,2 hPa 0,0 l/m 0 min 0 min 0 W/m 6,4 km/h (2 Bft) 95,74 %
20.06.2022 22:16 17,3 C 16,1 C 12,8 C 68 % 1017,2 hPa 0,0 l/m 0 min 0 min 0 W/m 3,2 km/h (1 Bft) 97,87 %
20.06.2022 22:18 17,2 C 16,1 C 12,8 C 68 % 1017,2 hPa 0,0 l/m 0 min 0 min 0 W/m 6,4 km/h (2 Bft) 97,83 %
20.06.2022 22:20 17,2 C 16,1 C 12,8 C 68 % 1017,2 hPa 0,0 l/m 0 min 0 min 0 W/m 3,2 km/h (1 Bft) 97,87 %
20.06.2022 22:22 17,1 C 15,6 C 12,8 C 68 % 1017,3 hPa 0,0 l/m 0 min 0 min 0 W/m 3,2 km/h (1 Bft) 95,74 %
20.06.2022 22:24 17,1 C 15,6 C 12,8 C 69 % 1017,3 hPa 0,0 l/m 0 min 0 min 0 W/m 9,7 km/h (2 Bft) 97,87 %
20.06.2022 22:26 17,0 C 15,6 C 12,8 C 68 % 1017,3 hPa 0,0 l/m 0 min 0 min 0 W/m 6,4 km/h (2 Bft) 97,87 %
20.06.2022 22:28 16,9 C 15,6 C 12,8 C 69 % 1017,3 hPa 0,0 l/m 0 min 0 min 0 W/m 6,4 km/h (2 Bft) 95,74 %
20.06.2022 22:30 16,8 C 15,6 C 12,8 C 69 % 1017,3 hPa 0,0 l/m 0 min 0 min 0 W/m 3,2 km/h (1 Bft) 100,00 %
20.06.2022 22:32 16,8 C 15,6 C 12,2 C 69 % 1017,3 hPa 0,0 l/m 0 min 0 min 0 W/m 6,4 km/h (2 Bft) 100,00 %
20.06.2022 22:34 16,8 C 15,6 C 12,8 C 69 % 1017,2 hPa 0,0 l/m 0 min 0 min 0 W/m 3,2 km/h (1 Bft) 100,00 %
20.06.2022 22:36 16,7 C 15,6 C 12,2 C 69 % 1017,2 hPa 0,0 l/m 0 min 0 min 0 W/m 3,2 km/h (1 Bft) 100,00 %
20.06.2022 22:38 16,7 C 15,6 C 12,2 C 69 % 1017,2 hPa 0,0 l/m 0 min 0 min 0 W/m 3,2 km/h (1 Bft) 97,37 %
20.06.2022 22:40 16,6 C 15,6 C 12,2 C 70 % 1017,3 hPa 0,0 l/m 0 min 0 min 0 W/m 3,2 km/h (1 Bft) 100,00 %
20.06.2022 22:42 16,6 C 15,6 C 12,2 C 70 % 1017,2 hPa 0,0 l/m 0 min 0 min 0 W/m 3,2 km/h (1 Bft) 100,00 %
20.06.2022 22:44 16,6 C 15,6 C 12,2 C 70 % 1017,3 hPa 0,0 l/m 0 min 0 min 0 W/m 3,2 km/h (1 Bft) 100,00 %
20.06.2022 22:46 16,5 C 15,6 C 12,2 C 70 % 1017,2 hPa 0,0 l/m 0 min 0 min 0 W/m 6,4 km/h (2 Bft) 97,87 %
20.06.2022 22:48 16,5 C 15,6 C 12,2 C 70 % 1017,3 hPa 0,0 l/m 0 min 0 min 0 W/m 6,4 km/h (2 Bft) 100,00 %
20.06.2022 22:50 16,4 C 15,6 C 12,2 C 70 % 1017,2 hPa 0,0 l/m 0 min 0 min 0 W/m 0,0 km/h (0 Bft) 97,87 %
20.06.2022 22:52 16,4 C 15,0 C 12,2 C 70 % 1017,3 hPa 0,0 l/m 0 min 0 min 0 W/m 3,2 km/h (1 Bft) 100,00 %
20.06.2022 22:54 16,3 C 15,0 C 12,2 C 71 % 1017,3 hPa 0,0 l/m 0 min 0 min 0 W/m 3,2 km/h (1 Bft) 100,00 %
20.06.2022 22:56 16,3 C 15,0 C 12,2 C 71 % 1017,3 hPa 0,0 l/m 0 min 0 min 0 W/m 3,2 km/h (1 Bft) 100,00 %
20.06.2022 22:58 16,3 C 15,0 C 12,2 C 71 % 1017,3 hPa 0,0 l/m 0 min 0 min 0 W/m 3,2 km/h (1 Bft) 97,87 %
20.06.2022 23:00 16,2 C 15,0 C 11,7 C 71 % 1017,3 hPa 0,0 l/m 0 min 0 min 0 W/m 0,0 km/h (0 Bft) 95,74 %
20.06.2022 23:02 16,2 C 15,0 C 11,7 C 72 % 1017,3 hPa 0,0 l/m 0 min 0 min 0 W/m 0,0 km/h (0 Bft) 95,74 %
20.06.2022 23:04 16,2 C 15,0 C 11,7 C 72 % 1017,2 hPa 0,0 l/m 0 min 0 min 0 W/m 0,0 km/h (0 Bft) 97,87 %
20.06.2022 23:06 16,1 C 15,0 C 11,7 C 72 % 1017,2 hPa 0,0 l/m 0 min 0 min 0 W/m 3,2 km/h (1 Bft) 95,74 %
20.06.2022 23:08 16,1 C 15,0 C 11,7 C 72 % 1017,2 hPa 0,0 l/m 0 min 0 min 0 W/m 3,2 km/h (1 Bft) 97,83 %
20.06.2022 23:10 16,0 C 15,0 C 11,7 C 72 % 1017,3 hPa 0,0 l/m 0 min 0 min 0 W/m 3,2 km/h (1 Bft) 97,87 %
20.06.2022 23:12 15,9 C 15,0 C 11,7 C 72 % 1017,3 hPa 0,0 l/m 0 min 0 min 0 W/m 0,0 km/h (0 Bft) 95,74 %
20.06.2022 23:14 15,9 C 15,0 C 11,7 C 73 % 1017,3 hPa 0,0 l/m 0 min 0 min 0 W/m 0,0 km/h (0 Bft) 97,87 %
20.06.2022 23:16 15,9 C 15,0 C 11,7 C 73 % 1017,3 hPa 0,0 l/m 0 min 0 min 0 W/m 3,2 km/h (1 Bft) 95,74 %
20.06.2022 23:18 15,8 C 15,0 C 11,7 C 73 % 1017,3 hPa 0,0 l/m 0 min 0 min 0 W/m 0,0 km/h (0 Bft) 97,87 %
20.06.2022 23:20 15,8 C 14,4 C 11,7 C 73 % 1017,3 hPa 0,0 l/m 0 min 0 min 0 W/m 3,2 km/h (1 Bft) 97,96 %
20.06.2022 23:22 15,8 C 14,4 C 11,7 C 73 % 1017,3 hPa 0,0 l/m 0 min 0 min 0 W/m 6,4 km/h (2 Bft) 95,74 %
20.06.2022 23:24 15,7 C 14,4 C 11,7 C 73 % 1017,3 hPa 0,0 l/m 0 min 0 min 0 W/m 3,2 km/h (1 Bft) 95,74 %
20.06.2022 23:26 15,7 C 14,4 C 11,7 C 73 % 1017,3 hPa 0,0 l/m 0 min 0 min 0 W/m 6,4 km/h (2 Bft) 97,87 %
20.06.2022 23:28 15,7 C 14,4 C 11,7 C 73 % 1017,3 hPa 0,0 l/m 0 min 0 min 0 W/m 3,2 km/h (1 Bft) 95,74 %
20.06.2022 23:30 15,7 C 14,4 C 11,7 C 73 % 1017,3 hPa 0,0 l/m 0 min 0 min 0 W/m 6,4 km/h (2 Bft) 95,65 %
20.06.2022 23:32 15,6 C 14,4 C 11,7 C 73 % 1017,3 hPa 0,0 l/m 0 min 0 min 0 W/m 3,2 km/h (1 Bft) 93,62 %
20.06.2022 23:34 15,6 C 14,4 C 11,1 C 73 % 1017,3 hPa 0,0 l/m 0 min 0 min 0 W/m 12,9 km/h (3 Bft) 93,62 %
20.06.2022 23:36 15,6 C 14,4 C 11,1 C 73 % 1017,3 hPa 0,0 l/m 0 min 0 min 0 W/m 6,4 km/h (2 Bft) 95,74 %
20.06.2022 23:38 15,5 C 14,4 C 11,1 C 73 % 1017,3 hPa 0,0 l/m 0 min 0 min 0 W/m 6,4 km/h (2 Bft) 95,74 %
20.06.2022 23:40 15,4 C 14,4 C 11,1 C 74 % 1017,3 hPa 0,0 l/m 0 min 0 min 0 W/m 3,2 km/h (1 Bft) 95,74 %
20.06.2022 23:42 15,4 C 14,4 C 11,1 C 74 % 1017,3 hPa 0,0 l/m 0 min 0 min 0 W/m 3,2 km/h (1 Bft) 95,74 %
20.06.2022 23:44 15,4 C 14,4 C 11,1 C 74 % 1017,3 hPa 0,0 l/m 0 min 0 min 0 W/m 6,4 km/h (2 Bft) 97,83 %
20.06.2022 23:46 15,4 C 14,4 C 11,1 C 74 % 1017,3 hPa 0,0 l/m 0 min 0 min 0 W/m 9,7 km/h (2 Bft) 95,74 %
20.06.2022 23:48 15,4 C 14,4 C 11,1 C 74 % 1017,3 hPa 0,0 l/m 0 min 0 min 0 W/m 3,2 km/h (1 Bft) 97,87 %
20.06.2022 23:50 15,3 C 14,4 C 11,1 C 74 % 1017,3 hPa 0,0 l/m 0 min 0 min 0 W/m 6,4 km/h (2 Bft) 98,15 %
20.06.2022 23:52 15,3 C 14,4 C 11,1 C 74 % 1017,3 hPa 0,0 l/m 0 min 0 min 0 W/m 3,2 km/h (1 Bft) 97,87 %
20.06.2022 23:54 15,3 C 14,4 C 11,1 C 74 % 1017,3 hPa 0,0 l/m 0 min 0 min 0 W/m 3,2 km/h (1 Bft) 97,83 %
20.06.2022 23:56 15,3 C 14,4 C 11,1 C 74 % 1017,3 hPa 0,0 l/m 0 min 0 min 0 W/m 0,0 km/h (0 Bft) 97,87 %
20.06.2022 23:58 15,2 C 14,4 C 11,1 C 74 % 1017,2 hPa 0,0 l/m 0 min 0 min 0 W/m 3,2 km/h (1 Bft) 97,87 %
_ Min-Zeit 05:00 04:10 04:40 17:12 05:38 - - - - 02:44 08:12
Minimum _ 12,8 C 12,2 C 8,3 C 50 % 1011,7 hPa - - - - 0,0 km/h (0 Bft) 44,83 %
_ Max-Zeit 17:38 17:38 13:06 04:44 22:22 03:18 12:08 04:07 13:10 16:48 00:08
Maximum _ 22,9 C 28,3 C 25,0 C 95 % 1017,3 hPa 0,2 l/m 4 min 5 min 1204 W/m 35,4 km/h
N (5 Bft)
100,00 %
Durchschnitt _ 17,2 C 17,8 C 13,9 C 75 % 1015,3 hPa #2,6 l/m #7:42 h #2:28 h 396 W/m 10,6 km/h (2 Bft) 97,44 %
© 2022 W. Hausmann